| time (UTC) | temp C | wind direction | speed KPH | gust KPH | rain 1hr cm | rain 24hr cm | rain mn cm | humidity % | barometer mb |
| 20260507035603 | 8 | 200 | 4.8 | 12.9 | 0.00 | 0.25 | 0.00 | 89 | 1010.8 |
| 20260507035503 | 8 | 199 | 4.8 | 12.9 | 0.00 | 0.25 | 0.00 | 89 | 1010.8 |
| 20260507035403 | 8 | 198 | 3.2 | 8.0 | 0.00 | 0.25 | 0.00 | 89 | 1010.8 |
| 20260507035306 | 8 | 200 | 3.2 | 8.0 | 0.00 | 0.25 | 0.00 | 89 | 1010.8 |
| 20260507035203 | 8 | 204 | 4.8 | 11.3 | 0.00 | 0.25 | 0.00 | 89 | 1010.8 |
| 20260507035103 | 8 | 206 | 6.4 | 11.3 | 0.00 | 0.25 | 0.00 | 89 | 1010.8 |
| 20260507035004 | 8 | 206 | 6.4 | 11.3 | 0.00 | 0.25 | 0.00 | 89 | 1010.7 |
| 20260507034903 | 8 | 206 | 6.4 | 11.3 | 0.00 | 0.25 | 0.00 | 89 | 1010.8 |
| 20260507034803 | 8 | 205 | 3.2 | 11.3 | 0.00 | 0.25 | 0.00 | 89 | 1010.8 |
| 20260507034703 | 8 | 204 | 1.6 | 8.0 | 0.00 | 0.25 | 0.00 | 89 | 1010.8 |
| 20260507034603 | 8 | 202 | 1.6 | 4.8 | 0.00 | 0.25 | 0.00 | 89 | 1010.7 |
| 20260507034504 | 8 | 200 | 1.6 | 6.4 | 0.00 | 0.25 | 0.00 | 89 | 1010.7 |
| 20260507034404 | 8 | 201 | 3.2 | 6.4 | 0.00 | 0.25 | 0.00 | 89 | 1010.7 |
| 20260507034303 | 8 | 201 | 3.2 | 8.0 | 0.00 | 0.25 | 0.00 | 89 | 1010.7 |
| 20260507034203 | 8 | 201 | 3.2 | 8.0 | 0.00 | 0.25 | 0.00 | 89 | 1010.7 |
| 20260507034103 | 8 | 200 | 4.8 | 9.7 | 0.00 | 0.25 | 0.00 | 89 | 1010.7 |
| 20260507034003 | 8 | 199 | 3.2 | 9.7 | 0.00 | 0.25 | 0.00 | 89 | 1010.7 |
| 20260507033903 | 8 | 197 | 3.2 | 9.7 | 0.00 | 0.25 | 0.00 | 90 | 1010.7 |
| 20260507033804 | 8 | 195 | 3.2 | 9.7 | 0.00 | 0.25 | 0.00 | 90 | 1010.7 |
| 20260507033704 | 8 | 192 | 3.2 | 4.8 | 0.00 | 0.25 | 0.00 | 90 | 1010.7 |
| 20260507033603 | 8 | 192 | 3.2 | 4.8 | 0.00 | 0.25 | 0.00 | 90 | 1010.7 |
| 20260507033503 | 8 | 194 | 3.2 | 6.4 | 0.00 | 0.25 | 0.00 | 90 | 1010.7 |
| 20260507033404 | 8 | 195 | 3.2 | 6.4 | 0.00 | 0.25 | 0.00 | 90 | 1010.7 |
| 20260507033303 | 8 | 196 | 3.2 | 6.4 | 0.00 | 0.25 | 0.00 | 90 | 1010.7 |
| 20260507033203 | 8 | 195 | 3.2 | 6.4 | 0.00 | 0.25 | 0.00 | 90 | 1010.7 |
| 20260507033103 | 8 | 195 | 3.2 | 4.8 | 0.00 | 0.25 | 0.00 | 90 | 1010.7 |
| 20260507033003 | 8 | 196 | 3.2 | 8.0 | 0.00 | 0.25 | 0.00 | 90 | 1010.7 |
| 20260507032903 | 8 | 199 | 4.8 | 8.0 | 0.00 | 0.25 | 0.00 | 90 | 1010.7 |
| 20260507032803 | 8 | 203 | 4.8 | 12.9 | 0.00 | 0.25 | 0.00 | 90 | 1010.7 |
| 20260507032703 | 8 | 205 | 6.4 | 12.9 | 0.00 | 0.25 | 0.00 | 90 | 1010.7 |
| 20260507032604 | 8 | 206 | 6.4 | 12.9 | 0.00 | 0.25 | 0.00 | 90 | 1010.7 |
| 20260507032504 | 8 | 205 | 6.4 | 12.9 | 0.00 | 0.25 | 0.00 | 90 | 1010.7 |
| 20260507032403 | 8 | 204 | 6.4 | 11.3 | 0.00 | 0.25 | 0.00 | 90 | 1010.7 |
| 20260507032305 | 8 | 203 | 4.8 | 11.3 | 0.00 | 0.25 | 0.00 | 90 | 1010.7 |
| 20260507032203 | 8 | 202 | 4.8 | 11.3 | 0.00 | 0.25 | 0.00 | 91 | 1010.7 |
| 20260507032104 | 8 | 202 | 3.2 | 9.7 | 0.00 | 0.25 | 0.00 | 91 | 1010.7 |
| 20260507032004 | 8 | 201 | 1.6 | 4.8 | 0.00 | 0.25 | 0.00 | 91 | 1010.7 |
| 20260507031903 | 8 | 195 | 3.2 | 6.4 | 0.00 | 0.25 | 0.00 | 91 | 1010.7 |
| 20260507031803 | 8 | 192 | 3.2 | 11.3 | 0.00 | 0.25 | 0.00 | 90 | 1010.7 |
| 20260507031703 | 8 | 189 | 4.8 | 12.9 | 0.00 | 0.25 | 0.00 | 90 | 1010.7 |
| 20260507031604 | 8 | 188 | 6.4 | 12.9 | 0.00 | 0.25 | 0.00 | 90 | 1010.7 |
| 20260507031503 | 8 | 188 | 6.4 | 12.9 | 0.00 | 0.25 | 0.00 | 90 | 1010.7 |
| 20260507031403 | 8 | 189 | 8.0 | 12.9 | 0.00 | 0.25 | 0.00 | 90 | 1010.7 |
| 20260507031304 | 8 | 193 | 8.0 | 17.7 | 0.00 | 0.25 | 0.00 | 90 | 1010.7 |
| 20260507031203 | 8 | 195 | 8.0 | 17.7 | 0.00 | 0.25 | 0.00 | 90 | 1010.7 |
| 20260507031103 | 8 | 196 | 6.4 | 17.7 | 0.00 | 0.25 | 0.00 | 90 | 1010.7 |
| 20260507031003 | 8 | 196 | 6.4 | 17.7 | 0.00 | 0.25 | 0.00 | 90 | 1010.7 |
| 20260507030903 | 8 | 196 | 6.4 | 11.3 | 0.00 | 0.25 | 0.00 | 90 | 1010.7 |
| 20260507030804 | 8 | 196 | 4.8 | 9.7 | 0.00 | 0.25 | 0.00 | 90 | 1010.7 |
| 20260507030704 | 8 | 198 | 4.8 | 11.3 | 0.00 | 0.25 | 0.00 | 90 | 1010.7 |
| 20260507030603 | 8 | 198 | 6.4 | 11.3 | 0.00 | 0.25 | 0.00 | 90 | 1010.7 |
| 20260507030503 | 8 | 197 | 4.8 | 11.3 | 0.00 | 0.25 | 0.00 | 90 | 1010.7 |
| 20260507030304 | 8 | 194 | 4.8 | 11.3 | 0.00 | 0.25 | 0.00 | 90 | 1010.6 |
| 20260507030203 | 8 | 191 | 6.4 | 16.1 | 0.00 | 0.25 | 0.00 | 91 | 1010.6 |
| 20260507030004 | 8 | 189 | 9.7 | 16.1 | 0.00 | 0.25 | 0.00 | 91 | 1010.6 |
| 20260507025903 | 8 | 189 | 8.0 | 16.1 | 0.00 | 0.25 | 0.00 | 90 | 1010.6 |
| 20260507025803 | 8 | 190 | 6.4 | 14.5 | 0.00 | 0.25 | 0.00 | 90 | 1010.4 |
| 20260507025703 | 8 | 191 | 6.4 | 14.5 | 0.00 | 0.25 | 0.00 | 90 | 1010.4 |
| 20260507025603 | 8 | 192 | 6.4 | 9.7 | 0.00 | 0.25 | 0.00 | 91 | 1010.4 |
| 20260507025504 | 8 | 191 | 6.4 | 11.3 | 0.00 | 0.25 | 0.00 | 90 | 1010.4 |
| 20260507025403 | 8 | 192 | 6.4 | 12.9 | 0.00 | 0.25 | 0.00 | 90 | 1010.4 |
| 20260507025306 | 8 | 192 | 6.4 | 12.9 | 0.00 | 0.25 | 0.00 | 89 | 1010.4 |
| 20260507025203 | 8 | 194 | 6.4 | 14.5 | 0.00 | 0.25 | 0.00 | 90 | 1010.4 |
| 20260507025103 | 8 | 196 | 6.4 | 14.5 | 0.00 | 0.25 | 0.00 | 91 | 1010.4 |
| 20260507025003 | 8 | 197 | 6.4 | 14.5 | 0.00 | 0.25 | 0.00 | 91 | 1010.4 |
| 20260507024903 | 8 | 197 | 6.4 | 14.5 | 0.00 | 0.25 | 0.00 | 90 | 1010.4 |
| 20260507024804 | 8 | 196 | 6.4 | 12.9 | 0.00 | 0.25 | 0.00 | 90 | 1010.4 |
| 20260507024703 | 8 | 195 | 4.8 | 14.5 | 0.00 | 0.25 | 0.00 | 90 | 1010.3 |
| 20260507024603 | 8 | 193 | 6.4 | 14.5 | 0.00 | 0.25 | 0.00 | 90 | 1010.3 |
| 20260507024503 | 8 | 190 | 6.4 | 14.5 | 0.00 | 0.25 | 0.00 | 90 | 1010.3 |
| 20260507024403 | 8 | 188 | 6.4 | 14.5 | 0.00 | 0.25 | 0.00 | 90 | 1010.3 |
| 20260507024303 | 8 | 187 | 6.4 | 12.9 | 0.00 | 0.25 | 0.00 | 91 | 1010.3 |
| 20260507024203 | 8 | 186 | 6.4 | 11.3 | 0.00 | 0.25 | 0.00 | 91 | 1010.3 |
| 20260507024103 | 8 | 187 | 6.4 | 12.9 | 0.00 | 0.25 | 0.00 | 91 | 1010.3 |
| 20260507024003 | 8 | 189 | 6.4 | 12.9 | 0.00 | 0.25 | 0.00 | 90 | 1010.3 |
| 20260507023904 | 8 | 191 | 6.4 | 12.9 | 0.00 | 0.25 | 0.00 | 90 | 1010.3 |
| 20260507023703 | 8 | 195 | 6.4 | 12.9 | 0.00 | 0.25 | 0.00 | 90 | 1010.3 |
| 20260507023603 | 8 | 194 | 6.4 | 12.9 | 0.00 | 0.25 | 0.00 | 90 | 1010.3 |
| 20260507023504 | 8 | 192 | 6.4 | 12.9 | 0.00 | 0.25 | 0.00 | 89 | 1010.3 |
| 20260507023403 | 8 | 190 | 8.0 | 14.5 | 0.00 | 0.25 | 0.00 | 89 | 1010.3 |
| 20260507023303 | 8 | 190 | 8.0 | 14.5 | 0.00 | 0.25 | 0.00 | 90 | 1010.3 |
| 20260507023203 | 8 | 190 | 6.4 | 14.5 | 0.00 | 0.25 | 0.00 | 90 | 1010.3 |
| 20260507023104 | 8 | 191 | 6.4 | 14.5 | 0.00 | 0.25 | 0.00 | 90 | 1010.3 |
| 20260507023003 | 8 | 191 | 4.8 | 11.3 | 0.00 | 0.25 | 0.00 | 91 | 1010.3 |
| 20260507022904 | 8 | 191 | 4.8 | 11.3 | 0.00 | 0.25 | 0.00 | 91 | 1010.3 |
| 20260507022804 | 8 | 190 | 6.4 | 12.9 | 0.00 | 0.25 | 0.00 | 90 | 1010.3 |
| 20260507022703 | 8 | 189 | 6.4 | 12.9 | 0.00 | 0.25 | 0.00 | 90 | 1010.3 |
| 20260507022604 | 8 | 186 | 6.4 | 12.9 | 0.00 | 0.25 | 0.00 | 90 | 1010.3 |
| 20260507022403 | 8 | 183 | 6.4 | 12.9 | 0.00 | 0.25 | 0.00 | 90 | 1010.2 |
| 20260507022306 | 8 | 184 | 6.4 | 12.9 | 0.00 | 0.25 | 0.00 | 90 | 1010.2 |
| 20260507022203 | 8 | 187 | 4.8 | 11.3 | 0.00 | 0.25 | 0.00 | 91 | 1010.2 |
| 20260507022104 | 8 | 189 | 4.8 | 9.7 | 0.00 | 0.25 | 0.00 | 91 | 1010.2 |
| 20260507022003 | 8 | 189 | 4.8 | 12.9 | 0.00 | 0.25 | 0.00 | 91 | 1010.2 |
| 20260507021904 | 8 | 191 | 4.8 | 12.9 | 0.00 | 0.25 | 0.00 | 91 | 1010.2 |
| 20260507021804 | 8 | 191 | 4.8 | 12.9 | 0.00 | 0.25 | 0.00 | 91 | 1010.2 |
| 20260507021703 | 8 | 194 | 4.8 | 12.9 | 0.00 | 0.25 | 0.00 | 91 | 1010.2 |
| 20260507021603 | 8 | 195 | 4.8 | 12.9 | 0.00 | 0.25 | 0.00 | 90 | 1010.2 |
| 20260507021503 | 8 | 195 | 4.8 | 12.9 | 0.00 | 0.25 | 0.00 | 90 | 1010.2 |
| 20260507021404 | 8 | 195 | 4.8 | 12.9 | 0.00 | 0.25 | 0.00 | 90 | 1010.2 |
| 20260507021303 | 8 | 193 | 6.4 | 11.3 | 0.00 | 0.25 | 0.00 | 90 | 1010.2 |
| 20260507021203 | 8 | 190 | 6.4 | 19.3 | 0.00 | 0.25 | 0.00 | 90 | 1010.2 |
| 20260507021103 | 8 | 189 | 6.4 | 19.3 | 0.00 | 0.25 | 0.00 | 90 | 1010.2 |
| 20260507021003 | 8 | 188 | 6.4 | 19.3 | 0.00 | 0.25 | 0.00 | 90 | 1010.2 |
| 20260507020904 | 8 | 187 | 6.4 | 19.3 | 0.00 | 0.25 | 0.00 | 90 | 1010.2 |
| 20260507020804 | 8 | 191 | 6.4 | 12.9 | 0.00 | 0.25 | 0.00 | 90 | 1010.2 |
| 20260507020703 | 8 | 193 | 6.4 | 12.9 | 0.00 | 0.25 | 0.00 | 90 | 1010.2 |
| 20260507020603 | 8 | 196 | 4.8 | 12.9 | 0.00 | 0.25 | 0.00 | 90 | 1010.2 |
| 20260507020503 | 8 | 199 | 6.4 | 12.9 | 0.00 | 0.25 | 0.00 | 91 | 1010.1 |
| 20260507020404 | 8 | 200 | 4.8 | 12.9 | 0.00 | 0.25 | 0.00 | 90 | 1010.1 |
| 20260507020304 | 8 | 200 | 6.4 | 12.9 | 0.00 | 0.25 | 0.00 | 90 | 1010.1 |
| 20260507020203 | 8 | 199 | 6.4 | 12.9 | 0.00 | 0.25 | 0.00 | 90 | 1010.1 |
| 20260507020103 | 8 | 200 | 4.8 | 12.9 | 0.00 | 0.25 | 0.00 | 90 | 1010.1 |
| 20260507020003 | 8 | 199 | 6.4 | 19.3 | 0.00 | 0.25 | 0.00 | 90 | 1010.1 |
| 20260507015903 | 8 | 198 | 6.4 | 19.3 | 0.00 | 0.25 | 0.00 | 90 | 1010.1 |
| 20260507015805 | 8 | 196 | 6.4 | 19.3 | 0.00 | 0.25 | 0.00 | 90 | 1010.1 |
| 20260507015703 | 8 | 194 | 4.8 | 19.3 | 0.00 | 0.25 | 0.00 | 90 | 1010.1 |
| 20260507015604 | 8 | 192 | 4.8 | 14.5 | 0.00 | 0.25 | 0.00 | 90 | 1010.1 |
| 20260507015503 | 8 | 192 | 6.4 | 14.5 | 0.00 | 0.25 | 0.00 | 91 | 1010.0 |
| 20260507015403 | 8 | 194 | 4.8 | 14.5 | 0.00 | 0.25 | 0.00 | 91 | 1010.0 |
| 20260507015306 | 8 | 195 | 4.8 | 14.5 | 0.00 | 0.25 | 0.00 | 91 | 1010.0 |
| 20260507015203 | 8 | 195 | 4.8 | 11.3 | 0.00 | 0.25 | 0.00 | 91 | 1010.0 |
| 20260507015104 | 8 | 197 | 3.2 | 9.7 | 0.00 | 0.25 | 0.00 | 91 | 1010.0 |
| 20260507015004 | 8 | 196 | 3.2 | 9.7 | 0.00 | 0.25 | 0.00 | 90 | 1010.0 |
| 20260507014904 | 8 | 195 | 4.8 | 9.7 | 0.00 | 0.25 | 0.00 | 90 | 1010.0 |
| 20260507014803 | 8 | 193 | 4.8 | 9.7 | 0.00 | 0.25 | 0.00 | 90 | 1010.0 |
| 20260507014703 | 8 | 191 | 6.4 | 12.9 | 0.00 | 0.25 | 0.00 | 90 | 1010.0 |
| 20260507014603 | 8 | 189 | 4.8 | 12.9 | 0.00 | 0.25 | 0.00 | 91 | 1009.9 |
| 20260507014503 | 8 | 188 | 4.8 | 12.9 | 0.00 | 0.25 | 0.00 | 91 | 1009.9 |
| 20260507014403 | 8 | 190 | 4.8 | 12.9 | 0.00 | 0.25 | 0.00 | 91 | 1009.9 |
| 20260507014304 | 8 | 193 | 3.2 | 8.0 | 0.00 | 0.25 | 0.00 | 91 | 1009.9 |
| 20260507014204 | 8 | 197 | 4.8 | 12.9 | 0.00 | 0.25 | 0.00 | 92 | 1009.8 |
| 20260507014103 | 9 | 198 | 6.4 | 12.9 | 0.00 | 0.25 | 0.00 | 92 | 1009.8 |
| 20260507014003 | 9 | 200 | 6.4 | 12.9 | 0.00 | 0.25 | 0.00 | 91 | 1009.8 |
| 20260507013903 | 9 | 202 | 6.4 | 12.9 | 0.00 | 0.25 | 0.00 | 91 | 1009.8 |
| 20260507013803 | 9 | 203 | 6.4 | 14.5 | 0.00 | 0.25 | 0.00 | 91 | 1009.8 |
| 20260507013704 | 9 | 203 | 6.4 | 14.5 | 0.00 | 0.25 | 0.00 | 91 | 1009.8 |
| 20260507013604 | 9 | 202 | 6.4 | 14.5 | 0.00 | 0.25 | 0.00 | 91 | 1009.9 |
| 20260507013504 | 9 | 202 | 6.4 | 14.5 | 0.00 | 0.25 | 0.00 | 91 | 1009.9 |
| 20260507013403 | 9 | 204 | 4.8 | 11.3 | 0.00 | 0.25 | 0.00 | 91 | 1009.9 |
| 20260507013303 | 9 | 203 | 6.4 | 16.1 | 0.00 | 0.25 | 0.00 | 91 | 1009.9 |
| 20260507013203 | 9 | 204 | 6.4 | 16.1 | 0.00 | 0.25 | 0.00 | 92 | 1009.9 |
| 20260507013104 | 9 | 203 | 8.0 | 16.1 | 0.00 | 0.25 | 0.00 | 92 | 1009.9 |
| 20260507013004 | 9 | 201 | 6.4 | 16.1 | 0.00 | 0.25 | 0.00 | 92 | 1009.9 |
| 20260507012904 | 9 | 201 | 6.4 | 14.5 | 0.00 | 0.25 | 0.00 | 92 | 1009.9 |
| 20260507012804 | 9 | 201 | 6.4 | 14.5 | 0.00 | 0.25 | 0.00 | 92 | 1009.9 |
| 20260507012703 | 9 | 200 | 6.4 | 14.5 | 0.00 | 0.25 | 0.00 | 92 | 1009.9 |
| 20260507012603 | 9 | 201 | 8.0 | 16.1 | 0.00 | 0.25 | 0.00 | 92 | 1009.9 |
| 20260507012503 | 9 | 202 | 8.0 | 16.1 | 0.00 | 0.25 | 0.00 | 92 | 1009.9 |
| 20260507012403 | 9 | 202 | 8.0 | 16.1 | 0.00 | 0.25 | 0.00 | 93 | 1009.8 |
| 20260507012306 | 9 | 203 | 8.0 | 16.1 | 0.00 | 0.25 | 0.00 | 93 | 1009.8 |
| 20260507012204 | 9 | 204 | 6.4 | 12.9 | 0.00 | 0.25 | 0.00 | 93 | 1009.8 |
| 20260507012103 | 9 | 204 | 4.8 | 12.9 | 0.00 | 0.25 | 0.00 | 93 | 1009.8 |
| 20260507012003 | 9 | 205 | 4.8 | 12.9 | 0.00 | 0.25 | 0.00 | 93 | 1009.8 |
| 20260507011903 | 9 | 205 | 3.2 | 9.7 | 0.00 | 0.25 | 0.00 | 93 | 1009.8 |
| 20260507011803 | 9 | 204 | 3.2 | 9.7 | 0.00 | 0.25 | 0.00 | 93 | 1009.8 |
| 20260507011704 | 9 | 202 | 4.8 | 9.7 | 0.00 | 0.25 | 0.00 | 93 | 1009.8 |
| 20260507011604 | 9 | 200 | 4.8 | 14.5 | 0.00 | 0.25 | 0.00 | 93 | 1009.8 |
| 20260507011504 | 9 | 200 | 6.4 | 16.1 | 0.00 | 0.25 | 0.00 | 93 | 1009.8 |
| 20260507011404 | 9 | 200 | 6.4 | 16.1 | 0.00 | 0.25 | 0.00 | 93 | 1009.8 |
| 20260507011304 | 9 | 200 | 8.0 | 16.1 | 0.00 | 0.25 | 0.00 | 92 | 1009.8 |
| 20260507011203 | 9 | 202 | 8.0 | 16.1 | 0.00 | 0.25 | 0.00 | 92 | 1009.8 |
| 20260507011103 | 9 | 205 | 8.0 | 14.5 | 0.00 | 0.25 | 0.00 | 93 | 1009.8 |
| 20260507011003 | 9 | 207 | 8.0 | 17.7 | 0.00 | 0.25 | 0.00 | 92 | 1009.8 |
| 20260507010903 | 9 | 210 | 8.0 | 17.7 | 0.00 | 0.25 | 0.00 | 93 | 1009.8 |
| 20260507010803 | 9 | 212 | 9.7 | 17.7 | 0.00 | 0.25 | 0.00 | 93 | 1009.8 |
| 20260507010704 | 9 | 214 | 8.0 | 17.7 | 0.00 | 0.25 | 0.00 | 93 | 1009.8 |
| 20260507010603 | 9 | 214 | 8.0 | 14.5 | 0.00 | 0.25 | 0.00 | 93 | 1009.8 |
| 20260507010504 | 9 | 215 | 8.0 | 14.5 | 0.00 | 0.25 | 0.00 | 93 | 1009.8 |
| 20260507010404 | 9 | 215 | 6.4 | 11.3 | 0.00 | 0.25 | 0.00 | 94 | 1009.8 |
| 20260507010304 | 9 | 213 | 6.4 | 11.3 | 0.00 | 0.25 | 0.00 | 93 | 1009.8 |
| 20260507010203 | 9 | 213 | 4.8 | 9.7 | 0.00 | 0.25 | 0.00 | 93 | 1009.8 |
| 20260507010003 | 9 | 209 | 4.8 | 9.7 | 0.00 | 0.25 | 0.00 | 93 | 1009.8 |
| 20260507005903 | 9 | 207 | 4.8 | 9.7 | 0.00 | 0.25 | 0.00 | 94 | 1009.8 |
| 20260507005804 | 9 | 205 | 4.8 | 9.7 | 0.00 | 0.25 | 0.00 | 93 | 1009.7 |
| 20260507005704 | 9 | 203 | 4.8 | 9.7 | 0.00 | 0.25 | 0.00 | 93 | 1009.7 |
| 20260507005603 | 9 | 203 | 4.8 | 9.7 | 0.00 | 0.25 | 0.00 | 93 | 1009.7 |
| 20260507005503 | 9 | 203 | 4.8 | 9.7 | 0.00 | 0.25 | 0.00 | 94 | 1009.7 |
| 20260507005403 | 9 | 203 | 4.8 | 9.7 | 0.00 | 0.25 | 0.00 | 94 | 1009.7 |
| 20260507005305 | 9 | 203 | 4.8 | 8.0 | 0.00 | 0.25 | 0.00 | 93 | 1009.7 |
| 20260507005203 | 9 | 201 | 4.8 | 8.0 | 0.00 | 0.25 | 0.00 | 93 | 1009.7 |
| 20260507005103 | 9 | 200 | 4.8 | 8.0 | 0.00 | 0.25 | 0.00 | 93 | 1009.7 |
| 20260507005003 | 9 | 199 | 4.8 | 11.3 | 0.00 | 0.25 | 0.00 | 94 | 1009.7 |
| 20260507004904 | 9 | 198 | 4.8 | 11.3 | 0.00 | 0.25 | 0.00 | 93 | 1009.7 |
| 20260507004803 | 9 | 199 | 4.8 | 11.3 | 0.00 | 0.25 | 0.00 | 93 | 1009.7 |
| 20260507004703 | 9 | 201 | 4.8 | 11.3 | 0.00 | 0.25 | 0.00 | 94 | 1009.7 |
| 20260507004603 | 9 | 202 | 4.8 | 8.0 | 0.00 | 0.25 | 0.00 | 94 | 1009.6 |
| 20260507004503 | 9 | 202 | 4.8 | 8.0 | 0.00 | 0.25 | 0.00 | 93 | 1009.6 |
| 20260507004403 | 9 | 203 | 4.8 | 8.0 | 0.00 | 0.25 | 0.00 | 93 | 1009.6 |
| 20260507004304 | 9 | 202 | 4.8 | 9.7 | 0.00 | 0.25 | 0.00 | 93 | 1009.6 |
| 20260507004204 | 9 | 202 | 4.8 | 9.7 | 0.00 | 0.25 | 0.00 | 93 | 1009.6 |
| 20260507004104 | 9 | 201 | 6.4 | 9.7 | 0.00 | 0.25 | 0.00 | 94 | 1009.6 |
| 20260507004004 | 9 | 199 | 6.4 | 11.3 | 0.00 | 0.25 | 0.00 | 94 | 1009.6 |
| 20260507003904 | 9 | 199 | 8.0 | 14.5 | 0.00 | 0.25 | 0.00 | 94 | 1009.6 |
| 20260507003804 | 9 | 198 | 8.0 | 14.5 | 0.00 | 0.25 | 0.00 | 94 | 1009.6 |
| 20260507003703 | 9 | 199 | 6.4 | 14.5 | 0.00 | 0.25 | 0.00 | 94 | 1009.6 |
| 20260507003604 | 9 | 199 | 6.4 | 16.1 | 0.00 | 0.25 | 0.00 | 94 | 1009.6 |
| 20260507003504 | 9 | 198 | 6.4 | 16.1 | 0.00 | 0.25 | 0.00 | 94 | 1009.6 |
| 20260507003403 | 9 | 197 | 6.4 | 16.1 | 0.00 | 0.25 | 0.00 | 94 | 1009.6 |
| 20260507003303 | 9 | 196 | 8.0 | 16.1 | 0.00 | 0.25 | 0.00 | 94 | 1009.6 |
| 20260507003203 | 9 | 196 | 6.4 | 14.5 | 0.00 | 0.25 | 0.00 | 94 | 1009.6 |
| 20260507003103 | 9 | 196 | 6.4 | 14.5 | 0.00 | 0.25 | 0.00 | 94 | 1009.6 |
| 20260507003004 | 9 | 197 | 6.4 | 14.5 | 0.00 | 0.25 | 0.00 | 94 | 1009.5 |
| 20260507002904 | 9 | 198 | 6.4 | 12.9 | 0.00 | 0.25 | 0.00 | 95 | 1009.6 |
| 20260507002804 | 9 | 197 | 4.8 | 12.9 | 0.00 | 0.25 | 0.00 | 94 | 1009.6 |
| 20260507002703 | 9 | 197 | 6.4 | 16.1 | 0.00 | 0.25 | 0.00 | 94 | 1009.6 |
| 20260507002603 | 9 | 198 | 8.0 | 16.1 | 0.00 | 0.25 | 0.00 | 94 | 1009.6 |
| 20260507002503 | 9 | 198 | 8.0 | 16.1 | 0.00 | 0.25 | 0.00 | 94 | 1009.6 |
| 20260507002403 | 9 | 198 | 9.7 | 16.1 | 0.00 | 0.25 | 0.00 | 94 | 1009.6 |
| 20260507002306 | 9 | 199 | 8.0 | 16.1 | 0.00 | 0.25 | 0.00 | 94 | 1009.5 |
| 20260507002204 | 9 | 199 | 6.4 | 14.5 | 0.00 | 0.25 | 0.00 | 94 | 1009.5 |
| 20260507002104 | 9 | 199 | 6.4 | 14.5 | 0.00 | 0.25 | 0.00 | 94 | 1009.5 |
| 20260507002003 | 10 | 199 | 6.4 | 12.9 | 0.00 | 0.25 | 0.00 | 94 | 1009.5 |
| 20260507001903 | 10 | 198 | 6.4 | 12.9 | 0.00 | 0.25 | 0.00 | 94 | 1009.5 |
| 20260507001803 | 10 | 198 | 8.0 | 12.9 | 0.00 | 0.25 | 0.00 | 94 | 1009.5 |
| 20260507001704 | 10 | 199 | 8.0 | 12.9 | 0.00 | 0.25 | 0.00 | 94 | 1009.5 |
| 20260507001603 | 10 | 200 | 6.4 | 9.7 | 0.00 | 0.25 | 0.00 | 94 | 1009.5 |
| 20260507001504 | 10 | 203 | 6.4 | 9.7 | 0.00 | 0.25 | 0.00 | 94 | 1009.5 |
| 20260507001404 | 10 | 204 | 4.8 | 9.7 | 0.00 | 0.25 | 0.00 | 94 | 1009.5 |
| 20260507001303 | 10 | 204 | 6.4 | 12.9 | 0.00 | 0.25 | 0.00 | 94 | 1009.5 |
| 20260507001203 | 10 | 204 | 4.8 | 12.9 | 0.00 | 0.25 | 0.00 | 93 | 1009.5 |
| 20260507001103 | 10 | 204 | 4.8 | 12.9 | 0.00 | 0.25 | 0.00 | 93 | 1009.5 |
| 20260507001004 | 10 | 205 | 3.2 | 12.9 | 0.00 | 0.25 | 0.00 | 94 | 1009.5 |
| 20260507000904 | 10 | 204 | 3.2 | 9.7 | 0.00 | 0.25 | 0.00 | 94 | 1009.5 |
| 20260507000803 | 10 | 205 | 3.2 | 9.7 | 0.00 | 0.25 | 0.00 | 93 | 1009.5 |
| 20260507000703 | 10 | 205 | 3.2 | 9.7 | 0.00 | 0.25 | 0.00 | 94 | 1009.5 |
| 20260507000604 | 10 | 205 | 3.2 | 9.7 | 0.00 | 0.25 | 0.00 | 94 | 1009.5 |
| 20260507000503 | 10 | 203 | 4.8 | 9.7 | 0.00 | 0.25 | 0.00 | 94 | 1009.6 |
| 20260507000405 | 10 | 201 | 4.8 | 9.7 | 0.00 | 0.25 | 0.00 | 94 | 1009.5 |
| 20260507000306 | 10 | 198 | 4.8 | 8.0 | 0.00 | 0.25 | 0.00 | 95 | 1009.6 |
| 20260507000205 | 10 | 196 | 4.8 | 8.0 | 0.00 | 0.25 | 0.00 | 94 | 1009.6 |
| 20260506235903 | 10 | 203 | 4.8 | 11.3 | 0.00 | 0.25 | 0.00 | 94 | 1009.6 |
| 20260506235804 | 10 | 208 | 4.8 | 11.3 | 0.00 | 0.25 | 0.00 | 94 | 1009.6 |
| 20260506235703 | 10 | 212 | 4.8 | 11.3 | 0.00 | 0.25 | 0.00 | 94 | 1009.6 |
| 20260506235603 | 10 | 213 | 4.8 | 11.3 | 0.00 | 0.25 | 0.00 | 94 | 1009.6 |
| 20260506235504 | 10 | 215 | 4.8 | 11.3 | 0.00 | 0.25 | 0.00 | 94 | 1009.6 |
| 20260506235403 | 10 | 217 | 4.8 | 11.3 | 0.00 | 0.25 | 0.00 | 94 | 1009.6 |
| 20260506235306 | 10 | 217 | 4.8 | 11.3 | 0.00 | 0.25 | 0.00 | 95 | 1009.6 |
| 20260506235203 | 10 | 213 | 4.8 | 11.3 | 0.00 | 0.25 | 0.00 | 94 | 1009.6 |
| 20260506235104 | 10 | 209 | 4.8 | 11.3 | 0.00 | 0.25 | 0.00 | 94 | 1009.6 |
| 20260506235004 | 10 | 204 | 6.4 | 11.3 | 0.00 | 0.25 | 0.00 | 94 | 1009.6 |
| 20260506234903 | 10 | 202 | 6.4 | 11.3 | 0.00 | 0.25 | 0.00 | 94 | 1009.6 |
| 20260506234803 | 10 | 201 | 4.8 | 11.3 | 0.00 | 0.25 | 0.00 | 94 | 1009.6 |
| 20260506234704 | 10 | 202 | 6.4 | 11.3 | 0.00 | 0.25 | 0.00 | 94 | 1009.6 |
| 20260506234603 | 10 | 203 | 4.8 | 9.7 | 0.00 | 0.25 | 0.00 | 94 | 1009.6 |
| 20260506234503 | 10 | 203 | 4.8 | 9.7 | 0.00 | 0.25 | 0.00 | 94 | 1009.6 |
| 20260506234404 | 10 | 203 | 4.8 | 9.7 | 0.00 | 0.25 | 0.00 | 94 | 1009.6 |
| 20260506234303 | 10 | 203 | 4.8 | 9.7 | 0.00 | 0.25 | 0.00 | 94 | 1009.6 |
| 20260506234203 | 10 | 204 | 4.8 | 9.7 | 0.03 | 0.25 | 0.00 | 94 | 1009.6 |
| 20260506234103 | 10 | 205 | 6.4 | 9.7 | 0.03 | 0.25 | 0.00 | 94 | 1009.6 |
| 20260506234004 | 10 | 205 | 6.4 | 9.7 | 0.03 | 0.25 | 0.00 | 94 | 1009.6 |
| 20260506233903 | 10 | 206 | 6.4 | 9.7 | 0.03 | 0.25 | 0.00 | 94 | 1009.6 |
| 20260506233803 | 10 | 206 | 6.4 | 12.9 | 0.03 | 0.25 | 0.00 | 94 | 1009.6 |
| 20260506233703 | 10 | 207 | 6.4 | 12.9 | 0.03 | 0.25 | 0.00 | 94 | 1009.6 |
| 20260506233604 | 10 | 208 | 4.8 | 12.9 | 0.05 | 0.25 | 0.00 | 94 | 1009.6 |
| 20260506233503 | 10 | 208 | 6.4 | 12.9 | 0.05 | 0.25 | 0.00 | 94 | 1009.6 |
| 20260506233403 | 10 | 208 | 4.8 | 11.3 | 0.05 | 0.25 | 0.00 | 95 | 1009.6 |
| 20260506233303 | 10 | 208 | 3.2 | 11.3 | 0.05 | 0.25 | 0.00 | 95 | 1009.6 |
| 20260506233204 | 10 | 206 | 4.8 | 11.3 | 0.05 | 0.25 | 0.00 | 95 | 1009.5 |
| 20260506233103 | 10 | 204 | 3.2 | 8.0 | 0.05 | 0.25 | 0.00 | 95 | 1009.5 |
| 20260506233003 | 10 | 204 | 4.8 | 8.0 | 0.05 | 0.25 | 0.00 | 95 | 1009.5 |
| 20260506232903 | 10 | 205 | 4.8 | 8.0 | 0.05 | 0.25 | 0.00 | 96 | 1009.5 |
| 20260506232804 | 10 | 207 | 4.8 | 8.0 | 0.05 | 0.25 | 0.00 | 96 | 1009.5 |
| 20260506232704 | 10 | 213 | 4.8 | 9.7 | 0.05 | 0.25 | 0.00 | 95 | 1009.5 |
| 20260506232603 | 10 | 217 | 4.8 | 9.7 | 0.05 | 0.25 | 0.00 | 95 | 1009.5 |
| 20260506232503 | 10 | 221 | 4.8 | 9.7 | 0.05 | 0.25 | 0.00 | 95 | 1009.5 |
| 20260506232403 | 10 | 224 | 4.8 | 9.7 | 0.05 | 0.25 | 0.00 | 95 | 1009.5 |
| 20260506232306 | 10 | 228 | 4.8 | 9.7 | 0.05 | 0.25 | 0.00 | 95 | 1009.5 |
| 20260506232203 | 10 | 230 | 4.8 | 9.7 | 0.05 | 0.25 | 0.00 | 95 | 1009.5 |
| 20260506232103 | 10 | 233 | 3.2 | 6.4 | 0.05 | 0.25 | 0.00 | 95 | 1009.5 |
| 20260506232003 | 10 | 234 | 3.2 | 6.4 | 0.05 | 0.25 | 0.00 | 95 | 1009.5 |
| 20260506231904 | 10 | 234 | 1.6 | 6.4 | 0.05 | 0.25 | 0.00 | 94 | 1009.5 |
| 20260506231804 | 10 | 233 | 1.6 | 6.4 | 0.05 | 0.25 | 0.00 | 94 | 1009.5 |
| 20260506231704 | 10 | 231 | 1.6 | 9.7 | 0.05 | 0.25 | 0.00 | 95 | 1009.5 |
| 20260506231603 | 10 | 230 | 3.2 | 9.7 | 0.05 | 0.25 | 0.00 | 94 | 1009.5 |
| 20260506231503 | 10 | 229 | 3.2 | 9.7 | 0.05 | 0.25 | 0.00 | 95 | 1009.5 |
| 20260506231404 | 10 | 228 | 3.2 | 9.7 | 0.05 | 0.25 | 0.00 | 94 | 1009.6 |
| 20260506231304 | 10 | 225 | 3.2 | 6.4 | 0.05 | 0.25 | 0.00 | 94 | 1009.6 |
| 20260506231204 | 10 | 220 | 3.2 | 6.4 | 0.05 | 0.25 | 0.00 | 94 | 1009.6 |
| 20260506231103 | 10 | 217 | 3.2 | 9.7 | 0.05 | 0.25 | 0.00 | 94 | 1009.5 |
| 20260506231003 | 10 | 217 | 4.8 | 9.7 | 0.05 | 0.25 | 0.00 | 93 | 1009.5 |
| 20260506230903 | 10 | 218 | 6.4 | 14.5 | 0.05 | 0.25 | 0.00 | 93 | 1009.5 |
| 20260506230804 | 10 | 219 | 6.4 | 14.5 | 0.05 | 0.25 | 0.00 | 94 | 1009.5 |
| 20260506230704 | 10 | 219 | 4.8 | 14.5 | 0.05 | 0.25 | 0.00 | 94 | 1009.5 |
| 20260506230603 | 10 | 217 | 4.8 | 14.5 | 0.05 | 0.25 | 0.00 | 95 | 1009.5 |
| 20260506230503 | 10 | 214 | 4.8 | 9.7 | 0.05 | 0.25 | 0.00 | 94 | 1009.5 |
| 20260506230403 | 10 | 210 | 4.8 | 9.7 | 0.05 | 0.25 | 0.00 | 94 | 1009.5 |
| 20260506230304 | 10 | 208 | 4.8 | 9.7 | 0.05 | 0.25 | 0.00 | 94 | 1009.4 |
| 20260506230203 | 10 | 206 | 4.8 | 8.0 | 0.05 | 0.25 | 0.00 | 94 | 1009.4 |
| 20260506230103 | 10 | 205 | 4.8 | 8.0 | 0.05 | 0.25 | 0.00 | 94 | 1009.3 |
| 20260506230003 | 10 | 206 | 3.2 | 6.4 | 0.05 | 0.25 | 0.00 | 94 | 1009.3 |
| 20260506225904 | 10 | 207 | 3.2 | 6.4 | 0.05 | 0.25 | 0.00 | 94 | 1009.3 |
| 20260506225803 | 10 | 209 | 3.2 | 9.7 | 0.05 | 0.25 | 0.00 | 94 | 1009.3 |
| 20260506225703 | 10 | 211 | 3.2 | 9.7 | 0.05 | 0.25 | 0.00 | 94 | 1009.3 |
| 20260506225603 | 10 | 212 | 4.8 | 9.7 | 0.05 | 0.25 | 0.00 | 93 | 1009.4 |
| 20260506225503 | 10 | 211 | 6.4 | 9.7 | 0.05 | 0.25 | 0.00 | 93 | 1009.4 |
| 20260506225403 | 10 | 212 | 4.8 | 11.3 | 0.05 | 0.25 | 0.00 | 94 | 1009.5 |
| 20260506225305 | 10 | 211 | 4.8 | 11.3 | 0.05 | 0.25 | 0.00 | 93 | 1009.5 |
| 20260506225203 | 10 | 211 | 6.4 | 11.3 | 0.05 | 0.25 | 0.00 | 93 | 1009.5 |
| 20260506225104 | 10 | 212 | 6.4 | 11.3 | 0.05 | 0.25 | 0.00 | 93 | 1009.5 |
| 20260506225003 | 10 | 213 | 6.4 | 11.3 | 0.05 | 0.25 | 0.00 | 93 | 1009.5 |
| 20260506224903 | 10 | 213 | 6.4 | 11.3 | 0.05 | 0.25 | 0.00 | 93 | 1009.5 |
| 20260506224803 | 10 | 214 | 6.4 | 11.3 | 0.05 | 0.25 | 0.00 | 93 | 1009.5 |
| 20260506224704 | 10 | 217 | 4.8 | 11.3 | 0.05 | 0.25 | 0.00 | 93 | 1009.4 |
| 20260506224603 | 10 | 222 | 4.8 | 8.0 | 0.03 | 0.23 | 0.00 | 93 | 1009.4 |
| 20260506224503 | 10 | 225 | 4.8 | 8.0 | 0.03 | 0.23 | 0.00 | 92 | 1009.4 |
| 20260506224403 | 10 | 227 | 4.8 | 14.5 | 0.03 | 0.23 | 0.00 | 92 | 1009.4 |
| 20260506224304 | 10 | 227 | 6.4 | 14.5 | 0.03 | 0.23 | 0.00 | 92 | 1009.4 |
| 20260506224203 | 10 | 227 | 4.8 | 14.5 | 0.03 | 0.23 | 0.00 | 92 | 1009.4 |
| 20260506224103 | 10 | 226 | 6.4 | 14.5 | 0.03 | 0.23 | 0.00 | 92 | 1009.4 |
| 20260506224003 | 10 | 224 | 6.4 | 14.5 | 0.00 | 0.23 | 0.00 | 92 | 1009.4 |
| 20260506223903 | 10 | 222 | 6.4 | 14.5 | 0.00 | 0.23 | 0.00 | 91 | 1009.4 |
| 20260506223803 | 10 | 221 | 6.4 | 14.5 | 0.00 | 0.23 | 0.00 | 92 | 1009.5 |
| 20260506223703 | 10 | 219 | 4.8 | 14.5 | 0.00 | 0.20 | 0.00 | 91 | 1009.5 |
| 20260506223604 | 10 | 219 | 4.8 | 14.5 | 0.00 | 0.20 | 0.00 | 91 | 1009.5 |
| 20260506223504 | 10 | 219 | 4.8 | 14.5 | 0.00 | 0.20 | 0.00 | 91 | 1009.5 |
| 20260506223403 | 10 | 217 | 6.4 | 14.5 | 0.00 | 0.20 | 0.00 | 90 | 1009.6 |
| 20260506223303 | 10 | 216 | 6.4 | 14.5 | 0.00 | 0.20 | 0.00 | 90 | 1009.5 |
| 20260506223203 | 10 | 215 | 6.4 | 11.3 | 0.00 | 0.20 | 0.00 | 90 | 1009.5 |
| 20260506223103 | 10 | 212 | 6.4 | 11.3 | 0.00 | 0.20 | 0.00 | 90 | 1009.5 |
| 20260506223003 | 10 | 210 | 6.4 | 11.3 | 0.00 | 0.20 | 0.00 | 91 | 1009.5 |
| 20260506222903 | 10 | 208 | 6.4 | 14.5 | 0.00 | 0.20 | 0.00 | 90 | 1009.5 |
| 20260506222804 | 10 | 207 | 8.0 | 14.5 | 0.00 | 0.20 | 0.00 | 90 | 1009.5 |
| 20260506222704 | 10 | 207 | 9.7 | 16.1 | 0.00 | 0.20 | 0.00 | 90 | 1009.5 |
| 20260506222603 | 10 | 208 | 9.7 | 16.1 | 0.00 | 0.20 | 0.00 | 91 | 1009.5 |
| 20260506222503 | 10 | 209 | 9.7 | 16.1 | 0.00 | 0.20 | 0.00 | 92 | 1009.5 |
| 20260506222403 | 10 | 213 | 9.7 | 16.1 | 0.00 | 0.20 | 0.00 | 92 | 1009.5 |
| 20260506222306 | 10 | 215 | 9.7 | 16.1 | 0.00 | 0.20 | 0.00 | 92 | 1009.4 |
| 20260506222203 | 10 | 216 | 9.7 | 16.1 | 0.00 | 0.20 | 0.00 | 92 | 1009.4 |
| 20260506222103 | 10 | 217 | 11.3 | 17.7 | 0.00 | 0.20 | 0.00 | 92 | 1009.4 |
| 20260506222004 | 10 | 217 | 11.3 | 19.3 | 0.00 | 0.20 | 0.00 | 92 | 1009.4 |
| 20260506221903 | 10 | 216 | 12.9 | 19.3 | 0.00 | 0.20 | 0.00 | 92 | 1009.4 |
| 20260506221803 | 10 | 215 | 14.5 | 19.3 | 0.00 | 0.20 | 0.00 | 92 | 1009.4 |
| 20260506221703 | 10 | 214 | 12.9 | 19.3 | 0.00 | 0.20 | 0.00 | 92 | 1009.4 |
| 20260506221604 | 10 | 212 | 12.9 | 19.3 | 0.00 | 0.20 | 0.00 | 92 | 1009.4 |
| 20260506221504 | 10 | 211 | 11.3 | 19.3 | 0.00 | 0.20 | 0.00 | 92 | 1009.3 |
| 20260506221403 | 10 | 211 | 9.7 | 17.7 | 0.00 | 0.20 | 0.00 | 92 | 1009.3 |
| 20260506221303 | 10 | 210 | 9.7 | 17.7 | 0.00 | 0.20 | 0.00 | 92 | 1009.3 |
| 20260506221203 | 10 | 211 | 8.0 | 17.7 | 0.00 | 0.20 | 0.00 | 92 | 1009.3 |
| 20260506221104 | 10 | 211 | 8.0 | 17.7 | 0.00 | 0.20 | 0.00 | 92 | 1009.3 |
| 20260506221003 | 10 | 210 | 8.0 | 17.7 | 0.00 | 0.20 | 0.00 | 92 | 1009.2 |
| 20260506220903 | 10 | 209 | 8.0 | 16.1 | 0.00 | 0.20 | 0.00 | 92 | 1009.2 |
| 20260506220803 | 10 | 207 | 8.0 | 16.1 | 0.00 | 0.20 | 0.00 | 92 | 1009.2 |
| 20260506220704 | 10 | 208 | 9.7 | 16.1 | 0.00 | 0.20 | 0.00 | 92 | 1009.0 |
| 20260506220604 | 10 | 208 | 8.0 | 14.5 | 0.00 | 0.20 | 0.00 | 92 | 1009.0 |
| 20260506220503 | 10 | 208 | 8.0 | 14.5 | 0.00 | 0.20 | 0.00 | 92 | 1009.0 |
| 20260506220403 | 10 | 208 | 6.4 | 12.9 | 0.00 | 0.20 | 0.00 | 92 | 1009.0 |
| 20260506220303 | 10 | 206 | 6.4 | 9.7 | 0.00 | 0.20 | 0.00 | 93 | 1009.0 |
| 20260506220204 | 10 | 206 | 6.4 | 9.7 | 0.00 | 0.20 | 0.00 | 93 | 1009.0 |
| 20260506220003 | 10 | 204 | 6.4 | 12.9 | 0.00 | 0.20 | 0.00 | 92 | 1008.9 |
| 20260506215903 | 10 | 204 | 6.4 | 12.9 | 0.00 | 0.20 | 0.00 | 92 | 1008.8 |
| 20260506215804 | 10 | 204 | 4.8 | 12.9 | 0.00 | 0.20 | 0.00 | 92 | 1008.8 |
| 20260506215704 | 10 | 205 | 4.8 | 9.7 | 0.00 | 0.20 | 0.00 | 92 | 1008.8 |
| 20260506215603 | 10 | 207 | 4.8 | 9.7 | 0.00 | 0.20 | 0.00 | 93 | 1008.8 |
| 20260506215503 | 10 | 210 | 6.4 | 9.7 | 0.00 | 0.20 | 0.00 | 92 | 1008.8 |
| 20260506215403 | 10 | 215 | 6.4 | 11.3 | 0.00 | 0.20 | 0.00 | 92 | 1008.8 |
| 20260506215306 | 10 | 218 | 6.4 | 11.3 | 0.00 | 0.20 | 0.00 | 92 | 1008.8 |
| 20260506215203 | 10 | 221 | 6.4 | 11.3 | 0.00 | 0.20 | 0.00 | 92 | 1008.7 |
| 20260506215103 | 10 | 222 | 6.4 | 12.9 | 0.00 | 0.20 | 0.00 | 91 | 1008.7 |
| 20260506215004 | 10 | 222 | 6.4 | 12.9 | 0.00 | 0.20 | 0.00 | 91 | 1008.7 |
| 20260506214904 | 10 | 221 | 6.4 | 12.9 | 0.00 | 0.20 | 0.00 | 91 | 1008.7 |
| 20260506214803 | 10 | 222 | 6.4 | 12.9 | 0.00 | 0.20 | 0.00 | 91 | 1008.6 |
| 20260506214703 | 10 | 222 | 6.4 | 12.9 | 0.00 | 0.20 | 0.00 | 91 | 1008.6 |
| 20260506214603 | 10 | 222 | 6.4 | 12.9 | 0.00 | 0.20 | 0.00 | 91 | 1008.6 |
| 20260506214503 | 10 | 221 | 6.4 | 12.9 | 0.00 | 0.20 | 0.00 | 91 | 1008.6 |
| 20260506214403 | 10 | 219 | 6.4 | 12.9 | 0.00 | 0.20 | 0.00 | 91 | 1008.6 |
| 20260506214303 | 10 | 218 | 6.4 | 12.9 | 0.00 | 0.20 | 0.00 | 91 | 1008.6 |
| 20260506214203 | 10 | 215 | 6.4 | 14.5 | 0.00 | 0.20 | 0.00 | 90 | 1008.6 |
| 20260506214104 | 10 | 212 | 6.4 | 14.5 | 0.00 | 0.20 | 0.00 | 90 | 1008.6 |
| 20260506214003 | 10 | 210 | 6.4 | 16.1 | 0.00 | 0.20 | 0.00 | 90 | 1008.6 |
| 20260506213903 | 10 | 210 | 6.4 | 16.1 | 0.00 | 0.20 | 0.00 | 90 | 1008.6 |
| 20260506213804 | 10 | 212 | 8.0 | 16.1 | 0.00 | 0.20 | 0.00 | 90 | 1008.6 |
| 20260506213703 | 10 | 215 | 8.0 | 16.1 | 0.00 | 0.20 | 0.00 | 89 | 1008.6 |
| 20260506213603 | 10 | 217 | 8.0 | 14.5 | 0.00 | 0.20 | 0.00 | 89 | 1008.6 |
| 20260506213503 | 10 | 217 | 8.0 | 14.5 | 0.00 | 0.20 | 0.00 | 89 | 1008.6 |
| 20260506213404 | 10 | 217 | 6.4 | 9.7 | 0.00 | 0.20 | 0.00 | 89 | 1008.6 |
| 20260506213303 | 10 | 216 | 6.4 | 9.7 | 0.00 | 0.20 | 0.00 | 89 | 1008.6 |
| 20260506213203 | 10 | 214 | 6.4 | 9.7 | 0.00 | 0.20 | 0.00 | 89 | 1008.6 |
| 20260506213103 | 11 | 213 | 6.4 | 9.7 | 0.00 | 0.20 | 0.00 | 89 | 1008.6 |
| 20260506213004 | 11 | 212 | 6.4 | 14.5 | 0.00 | 0.20 | 0.00 | 88 | 1008.6 |
| 20260506212903 | 11 | 211 | 8.0 | 14.5 | 0.00 | 0.20 | 0.00 | 89 | 1008.6 |
| 20260506212803 | 11 | 211 | 8.0 | 14.5 | 0.00 | 0.20 | 0.00 | 88 | 1008.5 |
| 20260506212703 | 11 | 212 | 9.7 | 14.5 | 0.00 | 0.20 | 0.00 | 88 | 1008.5 |
| 20260506212604 | 11 | 214 | 9.7 | 14.5 | 0.00 | 0.20 | 0.00 | 88 | 1008.5 |
| 20260506212503 | 11 | 216 | 8.0 | 14.5 | 0.00 | 0.20 | 0.00 | 89 | 1008.5 |
| 20260506212403 | 11 | 216 | 8.0 | 14.5 | 0.00 | 0.20 | 0.00 | 89 | 1008.5 |
| 20260506212306 | 11 | 215 | 6.4 | 14.5 | 0.00 | 0.20 | 0.00 | 88 | 1008.5 |
| 20260506212204 | 11 | 213 | 6.4 | 12.9 | 0.00 | 0.20 | 0.00 | 88 | 1008.5 |
| 20260506212103 | 11 | 211 | 6.4 | 11.3 | 0.00 | 0.20 | 0.00 | 89 | 1008.5 |
| 20260506212003 | 11 | 210 | 6.4 | 11.3 | 0.00 | 0.20 | 0.00 | 89 | 1008.5 |
| 20260506211903 | 11 | 209 | 6.4 | 11.3 | 0.00 | 0.20 | 0.00 | 88 | 1008.4 |
| 20260506211804 | 11 | 208 | 6.4 | 11.3 | 0.00 | 0.20 | 0.00 | 88 | 1008.4 |
| 20260506211703 | 11 | 207 | 6.4 | 11.3 | 0.00 | 0.20 | 0.00 | 89 | 1008.4 |
| 20260506211603 | 11 | 207 | 6.4 | 11.3 | 0.00 | 0.20 | 0.00 | 89 | 1008.4 |
| 20260506211503 | 11 | 205 | 6.4 | 11.3 | 0.00 | 0.20 | 0.00 | 88 | 1008.4 |
| 20260506211404 | 11 | 204 | 6.4 | 11.3 | 0.00 | 0.20 | 0.00 | 88 | 1008.4 |
| 20260506211303 | 11 | 202 | 6.4 | 9.7 | 0.00 | 0.20 | 0.00 | 88 | 1008.4 |
| 20260506211203 | 11 | 202 | 6.4 | 9.7 | 0.00 | 0.20 | 0.00 | 89 | 1008.4 |
| 20260506211103 | 11 | 204 | 6.4 | 9.7 | 0.00 | 0.20 | 0.00 | 89 | 1008.4 |
| 20260506211003 | 11 | 208 | 8.0 | 16.1 | 0.00 | 0.20 | 0.00 | 89 | 1008.4 |
| 20260506210904 | 11 | 210 | 8.0 | 16.1 | 0.00 | 0.20 | 0.00 | 88 | 1008.4 |
| 20260506210803 | 11 | 213 | 8.0 | 16.1 | 0.00 | 0.20 | 0.00 | 88 | 1008.4 |
| 20260506210703 | 11 | 213 | 8.0 | 16.1 | 0.00 | 0.20 | 0.00 | 88 | 1008.4 |
| 20260506210603 | 11 | 212 | 8.0 | 16.1 | 0.00 | 0.20 | 0.00 | 88 | 1008.4 |
| 20260506210504 | 11 | 211 | 8.0 | 16.1 | 0.00 | 0.20 | 0.00 | 89 | 1008.4 |
| 20260506210403 | 11 | 210 | 8.0 | 16.1 | 0.00 | 0.20 | 0.00 | 89 | 1008.4 |
| 20260506210303 | 11 | 207 | 8.0 | 16.1 | 0.00 | 0.20 | 0.00 | 89 | 1008.4 |
| 20260506210203 | 11 | 205 | 6.4 | 11.3 | 0.00 | 0.20 | 0.00 | 89 | 1008.4 |
| 20260506210004 | 11 | 204 | 6.4 | 11.3 | 0.00 | 0.20 | 0.00 | 89 | 1008.4 |
| 20260506205903 | 11 | 205 | 6.4 | 11.3 | 0.00 | 0.20 | 0.00 | 88 | 1008.4 |
| 20260506205803 | 11 | 206 | 6.4 | 11.3 | 0.00 | 0.20 | 0.00 | 88 | 1008.4 |
| 20260506205703 | 11 | 206 | 6.4 | 11.3 | 0.00 | 0.20 | 0.00 | 88 | 1008.4 |
| 20260506205603 | 11 | 205 | 8.0 | 14.5 | 0.00 | 0.20 | 0.00 | 87 | 1008.4 |
| 20260506205503 | 11 | 203 | 6.4 | 14.5 | 0.00 | 0.20 | 0.00 | 87 | 1008.4 |
| 20260506205403 | 11 | 202 | 6.4 | 14.5 | 0.00 | 0.20 | 0.00 | 88 | 1008.4 |
| 20260506205306 | 11 | 201 | 6.4 | 14.5 | 0.00 | 0.20 | 0.00 | 88 | 1008.4 |
| 20260506205204 | 11 | 202 | 6.4 | 9.7 | 0.00 | 0.20 | 0.00 | 88 | 1008.4 |
| 20260506205103 | 11 | 203 | 4.8 | 9.7 | 0.00 | 0.20 | 0.00 | 88 | 1008.4 |
| 20260506205003 | 11 | 204 | 6.4 | 9.7 | 0.00 | 0.20 | 0.00 | 88 | 1008.4 |
| 20260506204903 | 11 | 202 | 6.4 | 14.5 | 0.00 | 0.20 | 0.00 | 88 | 1008.4 |
| 20260506204804 | 11 | 200 | 6.4 | 14.5 | 0.00 | 0.20 | 0.00 | 88 | 1008.4 |
| 20260506204704 | 11 | 200 | 8.0 | 14.5 | 0.00 | 0.20 | 0.00 | 88 | 1008.4 |
| 20260506204603 | 11 | 200 | 9.7 | 17.7 | 0.00 | 0.20 | 0.00 | 88 | 1008.4 |
| 20260506204503 | 11 | 201 | 9.7 | 17.7 | 0.00 | 0.20 | 0.00 | 87 | 1008.3 |
| 20260506204404 | 11 | 202 | 9.7 | 17.7 | 0.00 | 0.20 | 0.00 | 87 | 1008.3 |
| 20260506204303 | 11 | 204 | 9.7 | 17.7 | 0.00 | 0.20 | 0.00 | 87 | 1008.3 |
| 20260506204203 | 11 | 205 | 9.7 | 17.7 | 0.00 | 0.20 | 0.00 | 87 | 1008.3 |
| 20260506204103 | 11 | 207 | 8.0 | 17.7 | 0.00 | 0.20 | 0.00 | 86 | 1008.3 |
| 20260506204004 | 11 | 208 | 8.0 | 17.7 | 0.00 | 0.20 | 0.00 | 86 | 1008.3 |
| 20260506203904 | 11 | 208 | 6.4 | 14.5 | 0.00 | 0.20 | 0.00 | 86 | 1008.3 |
| 20260506203803 | 11 | 207 | 6.4 | 14.5 | 0.00 | 0.20 | 0.00 | 86 | 1008.4 |
| 20260506203703 | 11 | 205 | 6.4 | 12.9 | 0.00 | 0.20 | 0.00 | 86 | 1008.4 |
| 20260506203603 | 11 | 205 | 6.4 | 14.5 | 0.00 | 0.20 | 0.00 | 87 | 1008.3 |
| 20260506203503 | 11 | 205 | 6.4 | 14.5 | 0.00 | 0.20 | 0.00 | 86 | 1008.3 |
| 20260506203403 | 11 | 206 | 8.0 | 16.1 | 0.00 | 0.20 | 0.00 | 85 | 1008.3 |
| 20260506203303 | 11 | 208 | 8.0 | 16.1 | 0.00 | 0.20 | 0.00 | 85 | 1008.3 |
| 20260506203204 | 11 | 210 | 9.7 | 16.1 | 0.00 | 0.20 | 0.00 | 85 | 1008.3 |
| 20260506203103 | 11 | 212 | 9.7 | 16.1 | 0.00 | 0.20 | 0.00 | 85 | 1008.3 |
| 20260506203003 | 11 | 213 | 8.0 | 14.5 | 0.00 | 0.20 | 0.00 | 86 | 1008.2 |
| 20260506202903 | 11 | 213 | 8.0 | 14.5 | 0.00 | 0.20 | 0.00 | 86 | 1008.2 |
| 20260506202804 | 11 | 212 | 6.4 | 14.5 | 0.00 | 0.20 | 0.00 | 86 | 1008.2 |
| 20260506202703 | 11 | 209 | 6.4 | 12.9 | 0.00 | 0.20 | 0.00 | 86 | 1008.2 |
| 20260506202603 | 11 | 206 | 6.4 | 12.9 | 0.00 | 0.20 | 0.00 | 86 | 1008.2 |
| 20260506202503 | 11 | 204 | 6.4 | 11.3 | 0.00 | 0.20 | 0.00 | 86 | 1008.2 |
| 20260506202404 | 11 | 202 | 6.4 | 11.3 | 0.00 | 0.20 | 0.00 | 86 | 1008.1 |
| 20260506202306 | 11 | 202 | 6.4 | 11.3 | 0.00 | 0.20 | 0.00 | 85 | 1008.1 |
| 20260506202203 | 11 | 203 | 6.4 | 12.9 | 0.00 | 0.20 | 0.00 | 86 | 1008.1 |
| 20260506202103 | 11 | 203 | 4.8 | 12.9 | 0.00 | 0.20 | 0.00 | 86 | 1008.0 |
| 20260506202003 | 11 | 203 | 4.8 | 12.9 | 0.00 | 0.20 | 0.00 | 86 | 1008.0 |
| 20260506201904 | 11 | 204 | 4.8 | 12.9 | 0.00 | 0.20 | 0.00 | 87 | 1008.0 |
| 20260506201803 | 11 | 205 | 4.8 | 14.5 | 0.00 | 0.20 | 0.00 | 86 | 1008.0 |
| 20260506201703 | 11 | 206 | 6.4 | 14.5 | 0.00 | 0.20 | 0.00 | 86 | 1008.0 |
| 20260506201603 | 11 | 206 | 8.0 | 14.5 | 0.00 | 0.20 | 0.00 | 85 | 1007.9 |
| 20260506201504 | 11 | 206 | 8.0 | 14.5 | 0.00 | 0.20 | 0.00 | 85 | 1007.9 |
| 20260506201403 | 11 | 206 | 6.4 | 12.9 | 0.00 | 0.20 | 0.00 | 85 | 1007.9 |
| 20260506201303 | 11 | 205 | 6.4 | 12.9 | 0.00 | 0.20 | 0.00 | 86 | 1007.9 |
| 20260506201203 | 11 | 204 | 6.4 | 12.9 | 0.00 | 0.23 | 0.00 | 86 | 1007.9 |
| 20260506201104 | 11 | 201 | 6.4 | 12.9 | 0.00 | 0.23 | 0.00 | 86 | 1007.9 |
| 20260506201003 | 11 | 198 | 6.4 | 12.9 | 0.00 | 0.23 | 0.00 | 86 | 1007.8 |
| 20260506200903 | 11 | 195 | 6.4 | 9.7 | 0.00 | 0.23 | 0.00 | 86 | 1007.8 |
| 20260506200803 | 11 | 192 | 6.4 | 9.7 | 0.00 | 0.23 | 0.00 | 87 | 1007.8 |
| 20260506200703 | 11 | 188 | 6.4 | 9.7 | 0.00 | 0.23 | 0.00 | 87 | 1007.8 |
| 20260506200603 | 11 | 186 | 6.4 | 9.7 | 0.00 | 0.23 | 0.00 | 87 | 1007.8 |
| 20260506200503 | 11 | 183 | 6.4 | 12.9 | 0.00 | 0.23 | 0.00 | 87 | 1007.8 |
| 20260506200404 | 11 | 182 | 6.4 | 12.9 | 0.00 | 0.23 | 0.00 | 86 | 1007.8 |
| 20260506200304 | 11 | 181 | 6.4 | 12.9 | 0.00 | 0.23 | 0.00 | 86 | 1007.8 |
| 20260506200203 | 11 | 180 | 4.8 | 12.9 | 0.00 | 0.23 | 0.00 | 86 | 1007.8 |
| 20260506200103 | 11 | 179 | 4.8 | 9.7 | 0.00 | 0.23 | 0.00 | 86 | 1007.8 |
| 20260506200004 | 11 | 180 | 3.2 | 9.7 | 0.00 | 0.23 | 0.00 | 86 | 1007.6 |
| 20260506195904 | 11 | 183 | 3.2 | 6.4 | 0.00 | 0.23 | 0.00 | 86 | 1007.6 |
| 20260506195804 | 11 | 186 | 3.2 | 6.4 | 0.00 | 0.23 | 0.00 | 86 | 1007.6 |
| 20260506195703 | 11 | 188 | 3.2 | 6.4 | 0.00 | 0.23 | 0.00 | 86 | 1007.6 |
| 20260506195603 | 11 | 191 | 3.2 | 8.0 | 0.00 | 0.23 | 0.00 | 85 | 1007.6 |
| 20260506195503 | 11 | 194 | 3.2 | 9.7 | 0.00 | 0.23 | 0.00 | 85 | 1007.6 |
| 20260506195404 | 11 | 198 | 4.8 | 9.7 | 0.00 | 0.23 | 0.00 | 86 | 1007.6 |
| 20260506195305 | 11 | 203 | 6.4 | 14.5 | 0.00 | 0.23 | 0.00 | 85 | 1007.8 |
| 20260506195203 | 11 | 207 | 8.0 | 17.7 | 0.00 | 0.23 | 0.00 | 85 | 1007.8 |
| 20260506195103 | 11 | 210 | 9.7 | 17.7 | 0.00 | 0.23 | 0.00 | 85 | 1007.8 |
| 20260506195004 | 11 | 212 | 9.7 | 17.7 | 0.00 | 0.23 | 0.00 | 84 | 1007.8 |
| 20260506194903 | 11 | 213 | 8.0 | 17.7 | 0.00 | 0.23 | 0.00 | 84 | 1007.8 |
| 20260506194803 | 11 | 213 | 6.4 | 12.9 | 0.00 | 0.23 | 0.00 | 85 | 1007.8 |
| 20260506194703 | 11 | 214 | 4.8 | 12.9 | 0.00 | 0.23 | 0.00 | 84 | 1007.8 |
| 20260506194604 | 11 | 218 | 4.8 | 9.7 | 0.00 | 0.23 | 0.00 | 84 | 1007.8 |
| 20260506194503 | 11 | 220 | 4.8 | 9.7 | 0.00 | 0.23 | 0.00 | 84 | 1007.6 |
| 20260506194403 | 11 | 221 | 4.8 | 9.7 | 0.00 | 0.23 | 0.00 | 84 | 1007.8 |
| 20260506194303 | 11 | 221 | 4.8 | 9.7 | 0.00 | 0.23 | 0.00 | 85 | 1007.6 |
| 20260506194203 | 11 | 220 | 3.2 | 11.3 | 0.00 | 0.23 | 0.00 | 85 | 1007.6 |
| 20260506194103 | 11 | 219 | 4.8 | 11.3 | 0.00 | 0.23 | 0.00 | 86 | 1007.6 |
| 20260506194003 | 11 | 219 | 6.4 | 12.9 | 0.00 | 0.23 | 0.00 | 86 | 1007.6 |
| 20260506193903 | 11 | 220 | 6.4 | 12.9 | 0.00 | 0.23 | 0.00 | 85 | 1007.6 |
| 20260506193803 | 11 | 221 | 6.4 | 12.9 | 0.00 | 0.23 | 0.00 | 85 | 1007.6 |
| 20260506193704 | 11 | 223 | 4.8 | 12.9 | 0.00 | 0.23 | 0.00 | 84 | 1007.6 |
| 20260506193604 | 11 | 226 | 4.8 | 9.7 | 0.00 | 0.23 | 0.00 | 85 | 1007.6 |
| 20260506193504 | 11 | 225 | 4.8 | 9.7 | 0.00 | 0.23 | 0.00 | 84 | 1007.6 |
| 20260506193403 | 11 | 222 | 4.8 | 9.7 | 0.00 | 0.23 | 0.00 | 85 | 1007.5 |
| 20260506193303 | 11 | 216 | 6.4 | 11.3 | 0.00 | 0.23 | 0.00 | 85 | 1007.5 |
| 20260506193203 | 11 | 212 | 6.4 | 11.3 | 0.00 | 0.23 | 0.00 | 84 | 1007.4 |
| 20260506193104 | 11 | 208 | 6.4 | 11.3 | 0.00 | 0.23 | 0.00 | 84 | 1007.4 |
| 20260506193004 | 11 | 207 | 6.4 | 11.3 | 0.00 | 0.23 | 0.00 | 82 | 1007.3 |
| 20260506192903 | 12 | 205 | 4.8 | 11.3 | 0.00 | 0.23 | 0.00 | 81 | 1007.3 |
| 20260506192803 | 12 | 205 | 3.2 | 11.3 | 0.00 | 0.23 | 0.00 | 80 | 1007.3 |
| 20260506192703 | 11 | 203 | 3.2 | 11.3 | 0.00 | 0.23 | 0.00 | 82 | 1007.2 |
| 20260506192603 | 12 | 198 | 3.2 | 6.4 | 0.00 | 0.23 | 0.00 | 83 | 1007.2 |
| 20260506192503 | 12 | 194 | 4.8 | 8.0 | 0.00 | 0.23 | 0.00 | 80 | 1007.2 |
| 20260506192403 | 11 | 189 | 4.8 | 11.3 | 0.00 | 0.23 | 0.00 | 82 | 1007.2 |
| 20260506192305 | 11 | 186 | 6.4 | 11.3 | 0.00 | 0.23 | 0.00 | 81 | 1007.2 |
| 20260506192203 | 11 | 184 | 4.8 | 11.3 | 0.00 | 0.23 | 0.00 | 84 | 1007.2 |
| 20260506192103 | 11 | 182 | 4.8 | 11.3 | 0.00 | 0.23 | 0.00 | 84 | 1007.1 |
| 20260506192003 | 11 | 180 | 4.8 | 11.3 | 0.00 | 0.23 | 0.00 | 85 | 1007.1 |
| 20260506191904 | 11 | 178 | 4.8 | 9.7 | 0.00 | 0.23 | 0.00 | 88 | 1007.1 |
| 20260506191803 | 11 | 179 | 4.8 | 9.7 | 0.00 | 0.23 | 0.00 | 87 | 1007.1 |
| 20260506191703 | 11 | 181 | 4.8 | 9.7 | 0.00 | 0.23 | 0.00 | 86 | 1007.1 |
| 20260506191603 | 11 | 184 | 4.8 | 9.7 | 0.00 | 0.23 | 0.00 | 84 | 1007.1 |
| 20260506191504 | 11 | 189 | 4.8 | 8.0 | 0.00 | 0.23 | 0.00 | 83 | 1007.0 |
| 20260506191404 | 11 | 190 | 4.8 | 8.0 | 0.00 | 0.23 | 0.00 | 83 | 1007.0 |
| 20260506191303 | 11 | 193 | 4.8 | 8.0 | 0.00 | 0.23 | 0.00 | 82 | 1007.0 |
| 20260506191203 | 11 | 198 | 4.8 | 8.0 | 0.00 | 0.23 | 0.00 | 83 | 1007.0 |
| 20260506191104 | 11 | 200 | 4.8 | 9.7 | 0.00 | 0.23 | 0.00 | 83 | 1007.0 |
| 20260506191004 | 11 | 201 | 4.8 | 9.7 | 0.00 | 0.23 | 0.00 | 84 | 1006.9 |
| 20260506190903 | 11 | 200 | 4.8 | 9.7 | 0.00 | 0.23 | 0.00 | 86 | 1006.9 |
| 20260506190803 | 11 | 196 | 4.8 | 9.7 | 0.00 | 0.23 | 0.00 | 86 | 1006.9 |
| 20260506190703 | 11 | 193 | 4.8 | 9.7 | 0.00 | 0.23 | 0.00 | 86 | 1006.9 |
| 20260506190604 | 11 | 189 | 4.8 | 8.0 | 0.00 | 0.23 | 0.00 | 89 | 1006.9 |
| 20260506190504 | 11 | 186 | 4.8 | 8.0 | 0.00 | 0.23 | 0.00 | 87 | 1006.9 |
| 20260506190403 | 11 | 184 | 3.2 | 8.0 | 0.00 | 0.23 | 0.00 | 85 | 1006.9 |
| 20260506190303 | 11 | 182 | 3.2 | 8.0 | 0.00 | 0.23 | 0.00 | 82 | 1006.8 |
| 20260506190204 | 11 | 179 | 3.2 | 6.4 | 0.00 | 0.23 | 0.00 | 82 | 1006.8 |
| 20260506190104 | 11 | 174 | 3.2 | 4.8 | 0.00 | 0.23 | 0.00 | 83 | 1006.8 |
| 20260506190003 | 11 | 169 | 3.2 | 4.8 | 0.00 | 0.23 | 0.00 | 83 | 1006.8 |
| 20260506185903 | 11 | 163 | 3.2 | 4.8 | 0.00 | 0.23 | 0.00 | 83 | 1006.7 |
| 20260506185803 | 11 | 156 | 3.2 | 9.7 | 0.00 | 0.23 | 0.00 | 82 | 1006.7 |
| 20260506185703 | 11 | 150 | 3.2 | 9.7 | 0.00 | 0.23 | 0.00 | 82 | 1006.7 |
| 20260506185603 | 11 | 144 | 3.2 | 9.7 | 0.00 | 0.23 | 0.00 | 82 | 1006.6 |
| 20260506185503 | 11 | 138 | 3.2 | 9.7 | 0.00 | 0.23 | 0.00 | 82 | 1006.6 |
| 20260506185404 | 11 | 131 | 3.2 | 6.4 | 0.00 | 0.23 | 0.00 | 83 | 1006.6 |
| 20260506185306 | 11 | 128 | 3.2 | 6.4 | 0.00 | 0.23 | 0.00 | 84 | 1006.5 |
| 20260506185203 | 11 | 122 | 1.6 | 4.8 | 0.00 | 0.23 | 0.00 | 85 | 1006.5 |
| 20260506185103 | 11 | 113 | 1.6 | 3.2 | 0.03 | 0.23 | 0.00 | 86 | 1006.5 |
| 20260506185004 | 11 | 108 | 1.6 | 3.2 | 0.03 | 0.23 | 0.00 | 86 | 1006.4 |
| 20260506184904 | 11 | 106 | 3.2 | 3.2 | 0.03 | 0.23 | 0.00 | 87 | 1006.4 |
| 20260506184803 | 11 | 108 | 3.2 | 3.2 | 0.03 | 0.23 | 0.00 | 88 | 1006.2 |
| 20260506184703 | 11 | 110 | 3.2 | 3.2 | 0.03 | 0.23 | 0.00 | 88 | 1006.2 |
| 20260506184604 | 11 | 115 | 3.2 | 4.8 | 0.03 | 0.23 | 0.00 | 88 | 1006.2 |
| 20260506184503 | 11 | 122 | 3.2 | 4.8 | 0.05 | 0.23 | 0.00 | 89 | 1006.2 |
| 20260506184403 | 11 | 126 | 3.2 | 4.8 | 0.05 | 0.23 | 0.00 | 88 | 1006.1 |
| 20260506184303 | 11 | 132 | 1.6 | 4.8 | 0.05 | 0.23 | 0.00 | 87 | 1006.1 |
| 20260506184204 | 11 | 139 | 1.6 | 3.2 | 0.05 | 0.23 | 0.00 | 87 | 1006.1 |
| 20260506184104 | 11 | 143 | 1.6 | 3.2 | 0.05 | 0.23 | 0.00 | 88 | 1006.1 |
| 20260506184004 | 11 | 145 | 0.0 | 3.2 | 0.05 | 0.23 | 0.00 | 88 | 1006.1 |
| 20260506183904 | 11 | 150 | 0.0 | 3.2 | 0.05 | 0.23 | 0.00 | 85 | 1006.0 |
| 20260506183803 | 11 | 0 | 0.0 | 0.0 | 0.05 | 0.23 | 0.00 | 85 | 1006.0 |
| 20260506183704 | 11 | 0 | 0.0 | 0.0 | 0.05 | 0.23 | 0.00 | 88 | 1006.0 |
| 20260506183604 | 11 | 141 | 0.0 | 1.6 | 0.05 | 0.23 | 0.00 | 89 | 1006.0 |
| 20260506183504 | 11 | 135 | 0.0 | 4.8 | 0.05 | 0.23 | 0.00 | 88 | 1006.0 |
| 20260506183404 | 11 | 134 | 1.6 | 4.8 | 0.05 | 0.23 | 0.00 | 87 | 1005.9 |
| 20260506183303 | 11 | 133 | 1.6 | 8.0 | 0.05 | 0.23 | 0.00 | 87 | 1005.9 |
| 20260506183203 | 11 | 134 | 3.2 | 8.0 | 0.08 | 0.23 | 0.00 | 87 | 1005.9 |
| 20260506183103 | 12 | 137 | 3.2 | 9.7 | 0.08 | 0.23 | 0.00 | 86 | 1005.8 |
| 20260506183005 | 11 | 139 | 3.2 | 9.7 | 0.08 | 0.23 | 0.00 | 86 | 1005.8 |
| 20260506182903 | 11 | 143 | 3.2 | 9.7 | 0.08 | 0.23 | 0.00 | 87 | 1005.7 |
| 20260506182804 | 11 | 148 | 3.2 | 9.7 | 0.08 | 0.23 | 0.00 | 86 | 1005.7 |
| 20260506182704 | 11 | 153 | 3.2 | 6.4 | 0.08 | 0.23 | 0.00 | 86 | 1005.7 |
| 20260506182603 | 12 | 157 | 3.2 | 6.4 | 0.08 | 0.23 | 0.00 | 86 | 1005.8 |
| 20260506182503 | 12 | 162 | 3.2 | 6.4 | 0.08 | 0.23 | 0.00 | 87 | 1005.8 |
| 20260506182403 | 12 | 165 | 3.2 | 4.8 | 0.08 | 0.23 | 0.00 | 86 | 1005.9 |
| 20260506182306 | 12 | 167 | 3.2 | 6.4 | 0.08 | 0.20 | 0.00 | 83 | 1005.9 |
| 20260506182203 | 12 | 168 | 3.2 | 6.4 | 0.08 | 0.20 | 0.00 | 83 | 1005.9 |
| 20260506182103 | 12 | 168 | 3.2 | 6.4 | 0.08 | 0.20 | 0.00 | 84 | 1005.9 |
| 20260506182003 | 12 | 167 | 3.2 | 6.4 | 0.08 | 0.20 | 0.00 | 86 | 1005.9 |
| 20260506181904 | 12 | 164 | 3.2 | 6.4 | 0.10 | 0.20 | 0.00 | 84 | 1005.9 |
| 20260506181804 | 11 | 156 | 3.2 | 4.8 | 0.10 | 0.20 | 0.00 | 85 | 1006.0 |
| 20260506181703 | 11 | 153 | 3.2 | 4.8 | 0.10 | 0.20 | 0.00 | 87 | 1005.9 |
| 20260506181603 | 11 | 150 | 3.2 | 6.4 | 0.10 | 0.20 | 0.00 | 88 | 1005.9 |
| 20260506181503 | 11 | 151 | 3.2 | 8.0 | 0.10 | 0.20 | 0.00 | 87 | 1005.9 |
| 20260506181403 | 12 | 153 | 3.2 | 8.0 | 0.10 | 0.20 | 0.00 | 87 | 1005.9 |
| 20260506181303 | 11 | 156 | 3.2 | 8.0 | 0.10 | 0.20 | 0.00 | 87 | 1005.8 |
| 20260506181203 | 11 | 159 | 3.2 | 8.0 | 0.10 | 0.20 | 0.00 | 87 | 1005.7 |
| 20260506181103 | 11 | 158 | 3.2 | 4.8 | 0.10 | 0.20 | 0.00 | 87 | 1005.7 |
| 20260506181004 | 11 | 154 | 3.2 | 4.8 | 0.10 | 0.20 | 0.00 | 87 | 1005.8 |
| 20260506180903 | 11 | 151 | 3.2 | 8.0 | 0.10 | 0.20 | 0.00 | 88 | 1005.8 |
| 20260506180803 | 11 | 152 | 3.2 | 8.0 | 0.13 | 0.20 | 0.00 | 87 | 1005.8 |
| 20260506180703 | 12 | 154 | 3.2 | 8.0 | 0.13 | 0.20 | 0.00 | 86 | 1005.8 |
| 20260506180604 | 12 | 157 | 4.8 | 8.0 | 0.13 | 0.20 | 0.00 | 88 | 1005.7 |
| 20260506180504 | 12 | 163 | 4.8 | 9.7 | 0.13 | 0.20 | 0.00 | 88 | 1005.8 |
| 20260506180403 | 12 | 168 | 4.8 | 9.7 | 0.13 | 0.20 | 0.00 | 87 | 1005.8 |
| 20260506180303 | 12 | 172 | 4.8 | 9.7 | 0.13 | 0.20 | 0.00 | 86 | 1005.8 |
| 20260506180204 | 11 | 173 | 4.8 | 9.7 | 0.13 | 0.20 | 0.00 | 87 | 1005.8 |
| 20260506180104 | 11 | 173 | 4.8 | 9.7 | 0.13 | 0.20 | 0.00 | 88 | 1005.9 |
| 20260506180005 | 11 | 172 | 4.8 | 9.7 | 0.13 | 0.20 | 0.00 | 89 | 1005.9 |
| 20260506175903 | 11 | 171 | 4.8 | 9.7 | 0.15 | 0.20 | 0.00 | 88 | 1005.9 |
| 20260506175804 | 12 | 173 | 4.8 | 9.7 | 0.15 | 0.20 | 0.00 | 87 | 1005.9 |
| 20260506175703 | 12 | 174 | 4.8 | 9.7 | 0.15 | 0.20 | 0.00 | 86 | 1005.8 |
| 20260506175603 | 11 | 176 | 4.8 | 9.7 | 0.15 | 0.20 | 0.00 | 87 | 1005.8 |
| 20260506175503 | 11 | 175 | 3.2 | 9.7 | 0.15 | 0.20 | 0.00 | 88 | 1005.8 |
| 20260506175404 | 11 | 169 | 3.2 | 8.0 | 0.15 | 0.20 | 0.00 | 88 | 1005.9 |
| 20260506175306 | 11 | 165 | 3.2 | 9.7 | 0.15 | 0.20 | 0.00 | 88 | 1005.9 |
| 20260506175203 | 11 | 163 | 4.8 | 11.3 | 0.15 | 0.20 | 0.00 | 88 | 1005.9 |
| 20260506175103 | 11 | 164 | 6.4 | 11.3 | 0.15 | 0.20 | 0.00 | 87 | 1005.9 |
| 20260506175004 | 12 | 166 | 6.4 | 11.3 | 0.15 | 0.20 | 0.00 | 87 | 1005.8 |
| 20260506174904 | 12 | 169 | 6.4 | 11.3 | 0.15 | 0.20 | 0.00 | 87 | 1005.8 |
| 20260506174803 | 12 | 172 | 6.4 | 11.3 | 0.15 | 0.18 | 0.00 | 86 | 1005.8 |
| 20260506174703 | 12 | 174 | 6.4 | 11.3 | 0.15 | 0.18 | 0.00 | 86 | 1005.9 |
| 20260506174603 | 12 | 173 | 4.8 | 11.3 | 0.15 | 0.18 | 0.00 | 85 | 1005.9 |
| 20260506174504 | 12 | 172 | 4.8 | 11.3 | 0.15 | 0.18 | 0.00 | 84 | 1005.9 |
| 20260506174404 | 12 | 171 | 6.4 | 11.3 | 0.15 | 0.18 | 0.00 | 83 | 1005.9 |
| 20260506174303 | 12 | 170 | 6.4 | 11.3 | 0.15 | 0.18 | 0.00 | 84 | 1005.9 |
| 20260506174203 | 12 | 170 | 6.4 | 11.3 | 0.15 | 0.18 | 0.00 | 85 | 1006.0 |
| 20260506174103 | 12 | 172 | 6.4 | 11.3 | 0.15 | 0.18 | 0.00 | 86 | 1006.0 |
| 20260506174003 | 12 | 174 | 6.4 | 17.7 | 0.15 | 0.18 | 0.00 | 84 | 1006.0 |
| 20260506173903 | 12 | 176 | 6.4 | 17.7 | 0.15 | 0.18 | 0.00 | 84 | 1006.0 |
| 20260506173803 | 12 | 177 | 6.4 | 17.7 | 0.15 | 0.15 | 0.00 | 83 | 1006.0 |
| 20260506173704 | 12 | 177 | 8.0 | 17.7 | 0.15 | 0.15 | 0.00 | 83 | 1006.1 |
| 20260506173604 | 12 | 178 | 8.0 | 17.7 | 0.15 | 0.15 | 0.00 | 82 | 1006.1 |
| 20260506173503 | 12 | 177 | 8.0 | 17.7 | 0.15 | 0.15 | 0.00 | 82 | 1006.1 |
| 20260506173403 | 12 | 177 | 8.0 | 17.7 | 0.15 | 0.15 | 0.00 | 81 | 1006.1 |
| 20260506173303 | 12 | 177 | 8.0 | 17.7 | 0.15 | 0.15 | 0.00 | 80 | 1006.1 |
| 20260506173203 | 12 | 175 | 6.4 | 19.3 | 0.15 | 0.15 | 0.00 | 78 | 1006.1 |
| 20260506173103 | 12 | 172 | 8.0 | 25.7 | 0.15 | 0.15 | 0.00 | 77 | 1006.1 |
| 20260506173003 | 12 | 170 | 11.3 | 30.6 | 0.15 | 0.15 | 0.00 | 78 | 1006.1 |
| 20260506172904 | 12 | 169 | 12.9 | 30.6 | 0.15 | 0.15 | 0.00 | 77 | 1006.1 |
| 20260506172803 | 12 | 167 | 12.9 | 30.6 | 0.13 | 0.15 | 0.00 | 77 | 1006.1 |
| 20260506172703 | 12 | 165 | 11.3 | 30.6 | 0.13 | 0.15 | 0.00 | 77 | 1006.0 |
| 20260506172603 | 12 | 164 | 9.7 | 20.9 | 0.13 | 0.15 | 0.00 | 80 | 1006.0 |
| 20260506172504 | 12 | 164 | 9.7 | 17.7 | 0.13 | 0.15 | 0.00 | 81 | 1006.0 |
| 20260506172404 | 12 | 165 | 11.3 | 24.1 | 0.13 | 0.13 | 0.00 | 82 | 1005.9 |
| 20260506172306 | 12 | 166 | 11.3 | 24.1 | 0.13 | 0.13 | 0.00 | 81 | 1005.9 |
| 20260506172203 | 12 | 169 | 12.9 | 29.0 | 0.13 | 0.13 | 0.00 | 81 | 1005.8 |
| 20260506172103 | 12 | 171 | 12.9 | 29.0 | 0.13 | 0.13 | 0.00 | 81 | 1005.8 |
| 20260506172003 | 12 | 173 | 11.3 | 29.0 | 0.10 | 0.13 | 0.00 | 82 | 1005.8 |
| 20260506171903 | 12 | 175 | 11.3 | 29.0 | 0.10 | 0.13 | 0.00 | 81 | 1005.8 |
| 20260506171803 | 12 | 177 | 9.7 | 19.3 | 0.10 | 0.13 | 0.00 | 81 | 1005.8 |
| 20260506171704 | 12 | 179 | 9.7 | 19.3 | 0.10 | 0.10 | 0.00 | 79 | 1005.8 |
| 20260506171603 | 12 | 181 | 8.0 | 19.3 | 0.10 | 0.10 | 0.00 | 78 | 1005.8 |
| 20260506171503 | 13 | 184 | 8.0 | 17.7 | 0.10 | 0.10 | 0.00 | 76 | 1005.8 |
| 20260506171403 | 13 | 187 | 6.4 | 17.7 | 0.10 | 0.10 | 0.00 | 74 | 1005.8 |
| 20260506171303 | 13 | 190 | 8.0 | 17.7 | 0.10 | 0.10 | 0.00 | 74 | 1005.7 |
| 20260506171203 | 13 | 192 | 9.7 | 17.7 | 0.10 | 0.10 | 0.00 | 73 | 1005.7 |
| 20260506171103 | 13 | 194 | 9.7 | 20.9 | 0.10 | 0.10 | 0.00 | 73 | 1005.6 |
| 20260506171003 | 13 | 195 | 11.3 | 20.9 | 0.10 | 0.10 | 0.00 | 71 | 1005.6 |
| 20260506170903 | 13 | 195 | 9.7 | 20.9 | 0.08 | 0.10 | 0.00 | 71 | 1005.5 |
| 20260506170804 | 13 | 193 | 9.7 | 20.9 | 0.08 | 0.10 | 0.00 | 73 | 1005.5 |
| 20260506170703 | 12 | 189 | 6.4 | 17.7 | 0.08 | 0.10 | 0.00 | 78 | 1005.5 |
| 20260506170603 | 12 | 185 | 6.4 | 11.3 | 0.08 | 0.10 | 0.00 | 81 | 1005.4 |
| 20260506170503 | 12 | 181 | 4.8 | 8.0 | 0.08 | 0.10 | 0.00 | 85 | 1005.4 |
| 20260506170404 | 12 | 179 | 4.8 | 8.0 | 0.08 | 0.10 | 0.00 | 86 | 1005.3 |
| 20260506170303 | 12 | 181 | 4.8 | 9.7 | 0.08 | 0.10 | 0.00 | 84 | 1005.3 |
| 20260506170203 | 13 | 185 | 4.8 | 9.7 | 0.08 | 0.08 | 0.00 | 82 | 1005.3 |
| 20260506170103 | 13 | 187 | 4.8 | 9.7 | 0.08 | 0.08 | 0.00 | 78 | 1005.2 |
| 20260506170004 | 13 | 194 | 3.2 | 9.7 | 0.05 | 0.08 | 0.00 | 75 | 1005.2 |
| 20260506165904 | 14 | 200 | 1.6 | 9.7 | 0.05 | 0.05 | 0.00 | 73 | 1005.2 |
| 20260506165804 | 15 | 214 | 1.6 | 8.0 | 0.05 | 0.05 | 0.00 | 69 | 1005.2 |
| 20260506165704 | 15 | 219 | 3.2 | 11.3 | 0.05 | 0.05 | 0.00 | 63 | 1005.2 |
| 20260506165603 | 15 | 227 | 3.2 | 11.3 | 0.05 | 0.05 | 0.00 | 64 | 1005.1 |
| 20260506165503 | 15 | 232 | 6.4 | 11.3 | 0.05 | 0.05 | 0.00 | 64 | 1005.1 |
| 20260506165403 | 15 | 238 | 6.4 | 11.3 | 0.05 | 0.05 | 0.00 | 67 | 1005.1 |
| 20260506165305 | 15 | 244 | 6.4 | 9.7 | 0.05 | 0.05 | 0.00 | 67 | 1005.2 |
| 20260506165203 | 15 | 250 | 6.4 | 9.7 | 0.05 | 0.05 | 0.00 | 72 | 1005.1 |
| 20260506165103 | 15 | 258 | 4.8 | 9.7 | 0.05 | 0.05 | 0.00 | 72 | 1005.1 |
| 20260506165003 | 15 | 267 | 4.8 | 8.0 | 0.05 | 0.05 | 0.00 | 72 | 1005.1 |
| 20260506164904 | 15 | 273 | 4.8 | 8.0 | 0.03 | 0.05 | 0.00 | 74 | 1005.1 |
| 20260506164804 | 16 | 280 | 4.8 | 8.0 | 0.03 | 0.03 | 0.00 | 71 | 1005.1 |
| 20260506164703 | 16 | 288 | 4.8 | 8.0 | 0.03 | 0.03 | 0.00 | 68 | 1005.1 |
| 20260506164603 | 16 | 294 | 4.8 | 8.0 | 0.00 | 0.03 | 0.00 | 68 | 1005.1 |
| 20260506164504 | 16 | 298 | 4.8 | 8.0 | 0.00 | 0.03 | 0.00 | 68 | 1005.0 |
| 20260506164404 | 17 | 305 | 3.2 | 6.4 | 0.00 | 0.03 | 0.00 | 66 | 1005.0 |
| 20260506164304 | 17 | 314 | 3.2 | 6.4 | 0.00 | 0.00 | 0.00 | 64 | 1005.0 |
| 20260506164204 | 17 | 321 | 1.6 | 3.2 | 0.00 | 0.00 | 0.00 | 63 | 1005.0 |
| 20260506164103 | 17 | 328 | 1.6 | 3.2 | 0.00 | 0.00 | 0.00 | 60 | 1004.9 |
| 20260506164003 | 17 | 333 | 1.6 | 3.2 | 0.00 | 0.00 | 0.00 | 59 | 1004.9 |
| 20260506163903 | 17 | 341 | 1.6 | 4.8 | 0.00 | 0.00 | 0.00 | 57 | 1004.7 |
| 20260506163804 | 17 | 343 | 1.6 | 4.8 | 0.00 | 0.00 | 0.00 | 56 | 1004.7 |
| 20260506163703 | 17 | 349 | 3.2 | 6.4 | 0.00 | 0.00 | 0.00 | 56 | 1004.6 |
| 20260506163603 | 17 | 353 | 3.2 | 6.4 | 0.00 | 0.00 | 0.00 | 56 | 1004.6 |
| 20260506163503 | 17 | 357 | 3.2 | 6.4 | 0.00 | 0.00 | 0.00 | 56 | 1004.6 |
| 20260506163404 | 17 | 358 | 3.2 | 6.4 | 0.00 | 0.00 | 0.00 | 55 | 1004.6 |
| 20260506163303 | 17 | 1 | 3.2 | 4.8 | 0.00 | 0.00 | 0.00 | 55 | 1004.6 |
| 20260506163203 | 17 | 3 | 3.2 | 4.8 | 0.00 | 0.00 | 0.00 | 56 | 1004.6 |
| 20260506163103 | 17 | 10 | 3.2 | 6.4 | 0.00 | 0.00 | 0.00 | 57 | 1004.6 |
| 20260506163004 | 17 | 17 | 3.2 | 6.4 | 0.00 | 0.00 | 0.00 | 58 | 1004.6 |
| 20260506162904 | 17 | 21 | 1.6 | 6.4 | 0.00 | 0.00 | 0.00 | 60 | 1004.6 |
| 20260506162803 | 17 | 24 | 1.6 | 6.4 | 0.00 | 0.00 | 0.00 | 55 | 1004.5 |
| 20260506162703 | 17 | 34 | 1.6 | 4.8 | 0.00 | 0.00 | 0.00 | 54 | 1004.5 |
| 20260506162603 | 17 | 44 | 1.6 | 3.2 | 0.00 | 0.00 | 0.00 | 55 | 1004.5 |
| 20260506162504 | 17 | 47 | 1.6 | 6.4 | 0.00 | 0.00 | 0.00 | 55 | 1004.5 |
| 20260506162404 | 17 | 46 | 3.2 | 6.4 | 0.00 | 0.00 | 0.00 | 56 | 1004.4 |
| 20260506162306 | 17 | 44 | 3.2 | 6.4 | 0.00 | 0.00 | 0.00 | 56 | 1004.4 |
| 20260506162203 | 17 | 42 | 3.2 | 9.7 | 0.00 | 0.00 | 0.00 | 55 | 1004.4 |
| 20260506162103 | 17 | 37 | 4.8 | 9.7 | 0.00 | 0.00 | 0.00 | 56 | 1004.4 |
| 20260506162004 | 17 | 33 | 4.8 | 9.7 | 0.00 | 0.00 | 0.00 | 56 | 1004.4 |
| 20260506161903 | 17 | 32 | 6.4 | 14.5 | 0.00 | 0.00 | 0.00 | 56 | 1004.4 |
| 20260506161803 | 17 | 30 | 6.4 | 14.5 | 0.00 | 0.00 | 0.00 | 56 | 1004.4 |
| 20260506161703 | 17 | 30 | 4.8 | 14.5 | 0.00 | 0.00 | 0.00 | 56 | 1004.3 |
| 20260506161604 | 17 | 31 | 3.2 | 14.5 | 0.00 | 0.00 | 0.00 | 56 | 1004.3 |
| 20260506161503 | 17 | 33 | 1.6 | 6.4 | 0.00 | 0.00 | 0.00 | 56 | 1004.3 |
| 20260506161403 | 17 | 34 | 1.6 | 6.4 | 0.00 | 0.00 | 0.00 | 56 | 1004.3 |
| 20260506161303 | 17 | 34 | 3.2 | 8.0 | 0.00 | 0.00 | 0.00 | 56 | 1004.3 |
| 20260506161204 | 17 | 34 | 4.8 | 14.5 | 0.00 | 0.00 | 0.00 | 56 | 1004.3 |
| 20260506161103 | 17 | 34 | 6.4 | 14.5 | 0.00 | 0.00 | 0.00 | 56 | 1004.3 |
| 20260506161003 | 17 | 35 | 6.4 | 14.5 | 0.00 | 0.00 | 0.00 | 56 | 1004.3 |
| 20260506160903 | 17 | 38 | 8.0 | 14.5 | 0.00 | 0.00 | 0.00 | 56 | 1004.3 |
| 20260506160803 | 17 | 40 | 6.4 | 12.9 | 0.00 | 0.00 | 0.00 | 55 | 1004.3 |
| 20260506160704 | 17 | 43 | 6.4 | 12.9 | 0.00 | 0.00 | 0.00 | 56 | 1004.3 |
| 20260506160604 | 17 | 47 | 4.8 | 8.0 | 0.00 | 0.00 | 0.00 | 56 | 1004.4 |
| 20260506160504 | 17 | 50 | 3.2 | 8.0 | 0.00 | 0.00 | 0.00 | 56 | 1004.4 |
| 20260506160403 | 17 | 52 | 4.8 | 8.0 | 0.00 | 0.00 | 0.00 | 55 | 1004.4 |
| 20260506160303 | 17 | 53 | 3.2 | 8.0 | 0.00 | 0.00 | 0.00 | 55 | 1004.5 |
| 20260506160203 | 17 | 52 | 3.2 | 6.4 | 0.00 | 0.00 | 0.00 | 55 | 1004.5 |
| 20260506160104 | 17 | 51 | 3.2 | 6.4 | 0.00 | 0.00 | 0.00 | 55 | 1004.5 |
| 20260506160003 | 17 | 50 | 4.8 | 9.7 | 0.00 | 0.00 | 0.00 | 55 | 1004.5 |
| 20260506155903 | 17 | 50 | 6.4 | 11.3 | 0.00 | 0.00 | 0.00 | 55 | 1004.5 |
| 20260506155803 | 17 | 50 | 6.4 | 11.3 | 0.00 | 0.00 | 0.00 | 56 | 1004.5 |
| 20260506155703 | 17 | 48 | 6.4 | 12.9 | 0.00 | 0.00 | 0.00 | 55 | 1004.5 |
| 20260506155604 | 17 | 47 | 6.4 | 12.9 | 0.00 | 0.00 | 0.00 | 55 | 1004.5 |
| 20260506155503 | 18 | 45 | 6.4 | 12.9 | 0.00 | 0.00 | 0.00 | 55 | 1004.5 |
| 20260506155403 | 18 | 44 | 6.4 | 12.9 | 0.00 | 0.00 | 0.00 | 55 | 1004.5 |
| 20260506155306 | 18 | 40 | 6.4 | 9.7 | 0.00 | 0.00 | 0.00 | 55 | 1004.5 |
| 20260506155204 | 18 | 36 | 6.4 | 11.3 | 0.00 | 0.00 | 0.00 | 55 | 1004.5 |
| 20260506155104 | 18 | 32 | 4.8 | 11.3 | 0.00 | 0.00 | 0.00 | 54 | 1004.5 |
| 20260506155004 | 18 | 25 | 6.4 | 11.3 | 0.00 | 0.00 | 0.00 | 54 | 1004.5 |
| 20260506154903 | 18 | 18 | 6.4 | 12.9 | 0.00 | 0.00 | 0.00 | 54 | 1004.6 |
| 20260506154803 | 18 | 12 | 4.8 | 12.9 | 0.00 | 0.00 | 0.00 | 54 | 1004.6 |
| 20260506154703 | 18 | 9 | 4.8 | 12.9 | 0.00 | 0.00 | 0.00 | 55 | 1004.6 |
| 20260506154603 | 18 | 3 | 4.8 | 14.5 | 0.00 | 0.00 | 0.00 | 54 | 1004.6 |
| 20260506154503 | 18 | 360 | 6.4 | 14.5 | 0.00 | 0.00 | 0.00 | 54 | 1004.6 |
| 20260506154403 | 18 | 357 | 6.4 | 14.5 | 0.00 | 0.00 | 0.00 | 54 | 1004.6 |
| 20260506154304 | 18 | 357 | 6.4 | 14.5 | 0.00 | 0.00 | 0.00 | 54 | 1004.6 |
| 20260506154203 | 18 | 353 | 4.8 | 12.9 | 0.00 | 0.00 | 0.00 | 54 | 1004.6 |
| 20260506154103 | 18 | 345 | 4.8 | 11.3 | 0.00 | 0.00 | 0.00 | 54 | 1004.6 |
| 20260506154003 | 18 | 338 | 4.8 | 9.7 | 0.00 | 0.00 | 0.00 | 53 | 1004.6 |
| 20260506153904 | 18 | 337 | 6.4 | 9.7 | 0.00 | 0.00 | 0.00 | 52 | 1004.6 |
| 20260506153803 | 18 | 337 | 6.4 | 9.7 | 0.00 | 0.00 | 0.00 | 52 | 1004.7 |
| 20260506153703 | 18 | 337 | 6.4 | 9.7 | 0.00 | 0.00 | 0.00 | 51 | 1004.7 |
| 20260506153603 | 18 | 338 | 6.4 | 9.7 | 0.00 | 0.00 | 0.00 | 47 | 1004.7 |
| 20260506153504 | 18 | 338 | 6.4 | 8.0 | 0.00 | 0.00 | 0.00 | 47 | 1004.7 |
| 20260506153404 | 18 | 336 | 4.8 | 8.0 | 0.00 | 0.00 | 0.00 | 49 | 1004.7 |
| 20260506153303 | 18 | 333 | 6.4 | 9.7 | 0.00 | 0.00 | 0.00 | 48 | 1004.7 |
| 20260506153203 | 18 | 331 | 6.4 | 11.3 | 0.00 | 0.00 | 0.00 | 48 | 1004.7 |
| 20260506153103 | 18 | 330 | 6.4 | 11.3 | 0.00 | 0.00 | 0.00 | 48 | 1004.7 |
| 20260506153004 | 18 | 328 | 6.4 | 11.3 | 0.00 | 0.00 | 0.00 | 47 | 1004.7 |
| 20260506152904 | 18 | 326 | 6.4 | 12.9 | 0.00 | 0.00 | 0.00 | 48 | 1004.7 |
| 20260506152803 | 18 | 324 | 6.4 | 12.9 | 0.00 | 0.00 | 0.00 | 48 | 1004.7 |
| 20260506152703 | 18 | 324 | 8.0 | 14.5 | 0.00 | 0.00 | 0.00 | 48 | 1004.7 |
| 20260506152603 | 18 | 324 | 6.4 | 14.5 | 0.00 | 0.00 | 0.00 | 48 | 1004.7 |
| 20260506152504 | 18 | 327 | 6.4 | 14.5 | 0.00 | 0.00 | 0.00 | 48 | 1004.7 |
| 20260506152403 | 18 | 331 | 6.4 | 14.5 | 0.00 | 0.00 | 0.00 | 48 | 1004.7 |
| 20260506152305 | 18 | 337 | 4.8 | 8.0 | 0.00 | 0.00 | 0.00 | 48 | 1004.7 |
| 20260506152203 | 18 | 342 | 4.8 | 8.0 | 0.00 | 0.00 | 0.00 | 49 | 1004.7 |
| 20260506152104 | 18 | 346 | 3.2 | 8.0 | 0.00 | 0.00 | 0.00 | 49 | 1004.7 |
| 20260506152004 | 18 | 351 | 3.2 | 6.4 | 0.00 | 0.00 | 0.00 | 50 | 1004.6 |
| 20260506151904 | 18 | 353 | 3.2 | 6.4 | 0.00 | 0.00 | 0.00 | 50 | 1004.6 |
| 20260506151803 | 18 | 353 | 3.2 | 8.0 | 0.00 | 0.00 | 0.00 | 50 | 1004.6 |
| 20260506151703 | 18 | 354 | 4.8 | 9.7 | 0.00 | 0.00 | 0.00 | 49 | 1004.6 |
| 20260506151603 | 18 | 353 | 4.8 | 9.7 | 0.00 | 0.00 | 0.00 | 48 | 1004.6 |
| 20260506151504 | 18 | 353 | 6.4 | 9.7 | 0.00 | 0.00 | 0.00 | 48 | 1004.6 |
| 20260506151403 | 18 | 354 | 6.4 | 9.7 | 0.00 | 0.00 | 0.00 | 48 | 1004.6 |
| 20260506151303 | 18 | 355 | 6.4 | 9.7 | 0.00 | 0.00 | 0.00 | 48 | 1004.7 |
| 20260506151203 | 18 | 356 | 6.4 | 9.7 | 0.00 | 0.00 | 0.00 | 49 | 1004.7 |
| 20260506151103 | 18 | 356 | 6.4 | 14.5 | 0.00 | 0.00 | 0.00 | 49 | 1004.7 |
| 20260506151004 | 18 | 356 | 6.4 | 14.5 | 0.00 | 0.00 | 0.00 | 49 | 1004.7 |
| 20260506150904 | 18 | 357 | 6.4 | 14.5 | 0.00 | 0.00 | 0.00 | 49 | 1004.7 |
| 20260506150804 | 18 | 357 | 6.4 | 14.5 | 0.00 | 0.00 | 0.00 | 49 | 1004.7 |
| 20260506150703 | 18 | 358 | 6.4 | 9.7 | 0.00 | 0.00 | 0.00 | 49 | 1004.7 |
| 20260506150603 | 18 | 359 | 6.4 | 12.9 | 0.00 | 0.00 | 0.00 | 49 | 1004.7 |
| 20260506150504 | 18 | 360 | 8.0 | 12.9 | 0.00 | 0.00 | 0.00 | 49 | 1004.7 |
| 20260506150404 | 18 | 1 | 8.0 | 12.9 | 0.00 | 0.00 | 0.00 | 48 | 1004.7 |
| 20260506150305 | 19 | 3 | 6.4 | 12.9 | 0.00 | 0.00 | 0.00 | 48 | 1004.7 |
| 20260506150203 | 19 | 8 | 4.8 | 12.9 | 0.00 | 0.00 | 0.00 | 48 | 1004.7 |
| 20260506150103 | 19 | 19 | 4.8 | 11.3 | 0.00 | 0.00 | 0.00 | 48 | 1004.7 |
| 20260506150004 | 19 | 23 | 4.8 | 11.3 | 0.00 | 0.00 | 0.00 | 48 | 1004.7 |
| 20260506145904 | 19 | 26 | 6.4 | 14.5 | 0.00 | 0.00 | 0.00 | 47 | 1004.7 |
| 20260506145803 | 19 | 25 | 6.4 | 14.5 | 0.00 | 0.00 | 0.00 | 47 | 1004.9 |
| 20260506145703 | 19 | 23 | 4.8 | 14.5 | 0.00 | 0.00 | 0.00 | 46 | 1004.9 |
| 20260506145603 | 20 | 21 | 4.8 | 14.5 | 0.00 | 0.00 | 0.00 | 46 | 1004.9 |
| 20260506145503 | 19 | 19 | 4.8 | 8.0 | 0.00 | 0.00 | 0.00 | 46 | 1004.9 |
| 20260506145404 | 19 | 19 | 4.8 | 8.0 | 0.00 | 0.00 | 0.00 | 47 | 1004.9 |
| 20260506145305 | 19 | 19 | 4.8 | 9.7 | 0.00 | 0.00 | 0.00 | 49 | 1004.9 |
| 20260506145203 | 19 | 22 | 6.4 | 11.3 | 0.00 | 0.00 | 0.00 | 48 | 1004.9 |
| 20260506145103 | 19 | 26 | 6.4 | 14.5 | 0.00 | 0.00 | 0.00 | 48 | 1004.9 |
| 20260506145004 | 19 | 29 | 6.4 | 14.5 | 0.00 | 0.00 | 0.00 | 48 | 1005.0 |
| 20260506144904 | 18 | 32 | 4.8 | 14.5 | 0.00 | 0.00 | 0.00 | 48 | 1005.0 |
| 20260506144804 | 18 | 38 | 4.8 | 14.5 | 0.00 | 0.00 | 0.00 | 48 | 1005.0 |
| 20260506144703 | 18 | 42 | 3.2 | 8.0 | 0.00 | 0.00 | 0.00 | 48 | 1005.0 |
| 20260506144603 | 18 | 43 | 3.2 | 8.0 | 0.00 | 0.00 | 0.00 | 48 | 1005.0 |
| 20260506144504 | 18 | 44 | 3.2 | 8.0 | 0.00 | 0.00 | 0.00 | 47 | 1005.0 |
| 20260506144404 | 18 | 47 | 1.6 | 6.4 | 0.00 | 0.00 | 0.00 | 46 | 1005.0 |
| 20260506144303 | 18 | 41 | 1.6 | 6.4 | 0.00 | 0.00 | 0.00 | 45 | 1005.0 |
| 20260506144203 | 18 | 38 | 1.6 | 6.4 | 0.00 | 0.00 | 0.00 | 46 | 1005.0 |
| 20260506144103 | 18 | 36 | 3.2 | 6.4 | 0.00 | 0.00 | 0.00 | 46 | 1005.0 |
| 20260506144004 | 18 | 28 | 3.2 | 8.0 | 0.00 | 0.00 | 0.00 | 46 | 1005.1 |
| 20260506143903 | 18 | 22 | 3.2 | 9.7 | 0.00 | 0.00 | 0.00 | 46 | 1005.1 |
| 20260506143803 | 18 | 16 | 3.2 | 9.7 | 0.00 | 0.00 | 0.00 | 46 | 1005.1 |
| 20260506143603 | 18 | 7 | 4.8 | 9.7 | 0.00 | 0.00 | 0.00 | 46 | 1005.1 |
| 20260506143504 | 18 | 4 | 4.8 | 9.7 | 0.00 | 0.00 | 0.00 | 47 | 1005.1 |
| 20260506143403 | 18 | 2 | 4.8 | 9.7 | 0.00 | 0.00 | 0.00 | 49 | 1005.1 |
| 20260506143303 | 18 | 1 | 4.8 | 6.4 | 0.00 | 0.00 | 0.00 | 50 | 1005.1 |
| 20260506143203 | 18 | 0 | 4.8 | 9.7 | 0.00 | 0.00 | 0.00 | 50 | 1005.1 |
| 20260506143104 | 18 | 360 | 4.8 | 9.7 | 0.00 | 0.00 | 0.00 | 49 | 1005.2 |
| 20260506143004 | 18 | 359 | 6.4 | 9.7 | 0.00 | 0.00 | 0.00 | 49 | 1005.1 |
| 20260506142904 | 18 | 359 | 6.4 | 9.7 | 0.00 | 0.00 | 0.00 | 48 | 1005.2 |
| 20260506142803 | 18 | 358 | 4.8 | 9.7 | 0.00 | 0.00 | 0.00 | 49 | 1005.2 |
| 20260506142703 | 18 | 359 | 4.8 | 9.7 | 0.00 | 0.00 | 0.00 | 49 | 1005.2 |
| 20260506142603 | 18 | 360 | 6.4 | 9.7 | 0.00 | 0.00 | 0.00 | 49 | 1005.2 |
| 20260506142503 | 18 | 1 | 6.4 | 9.7 | 0.00 | 0.00 | 0.00 | 48 | 1005.2 |
| 20260506142403 | 18 | 2 | 6.4 | 9.7 | 0.00 | 0.00 | 0.00 | 48 | 1005.2 |
| 20260506142306 | 19 | 2 | 4.8 | 9.7 | 0.00 | 0.00 | 0.00 | 49 | 1005.2 |
| 20260506142203 | 19 | 3 | 3.2 | 9.7 | 0.00 | 0.00 | 0.00 | 50 | 1005.2 |
| 20260506142104 | 19 | 1 | 3.2 | 6.4 | 0.00 | 0.00 | 0.00 | 49 | 1005.2 |
| 20260506142004 | 19 | 0 | 1.6 | 6.4 | 0.00 | 0.00 | 0.00 | 49 | 1005.2 |
| 20260506141903 | 19 | 0 | 1.6 | 6.4 | 0.00 | 0.00 | 0.00 | 49 | 1005.2 |
| 20260506141803 | 19 | 0 | 3.2 | 8.0 | 0.00 | 0.00 | 0.00 | 50 | 1005.2 |
| 20260506141703 | 19 | 360 | 3.2 | 8.0 | 0.00 | 0.00 | 0.00 | 49 | 1005.2 |
| 20260506141604 | 19 | 360 | 3.2 | 8.0 | 0.00 | 0.00 | 0.00 | 49 | 1005.2 |
| 20260506141503 | 19 | 358 | 1.6 | 8.0 | 0.00 | 0.00 | 0.00 | 49 | 1005.2 |
| 20260506141403 | 18 | 346 | 0.0 | 4.8 | 0.00 | 0.00 | 0.00 | 48 | 1005.2 |
| 20260506141303 | 19 | 342 | 0.0 | 4.8 | 0.00 | 0.00 | 0.00 | 47 | 1005.2 |
| 20260506141204 | 19 | 339 | 0.0 | 4.8 | 0.00 | 0.00 | 0.00 | 47 | 1005.2 |
| 20260506141103 | 19 | 335 | 1.6 | 4.8 | 0.00 | 0.00 | 0.00 | 46 | 1005.2 |
| 20260506141003 | 19 | 332 | 1.6 | 3.2 | 0.00 | 0.00 | 0.00 | 47 | 1005.2 |
| 20260506140903 | 18 | 332 | 1.6 | 3.2 | 0.00 | 0.00 | 0.00 | 47 | 1005.3 |
| 20260506140804 | 18 | 330 | 1.6 | 3.2 | 0.00 | 0.00 | 0.00 | 47 | 1005.3 |
| 20260506140703 | 18 | 328 | 0.0 | 3.2 | 0.00 | 0.00 | 0.00 | 47 | 1005.3 |
| 20260506140603 | 18 | 326 | 1.6 | 4.8 | 0.00 | 0.00 | 0.00 | 47 | 1005.3 |
| 20260506140503 | 18 | 324 | 1.6 | 4.8 | 0.00 | 0.00 | 0.00 | 47 | 1005.3 |
| 20260506140404 | 18 | 321 | 3.2 | 4.8 | 0.00 | 0.00 | 0.00 | 47 | 1005.3 |
| 20260506140303 | 18 | 316 | 3.2 | 6.4 | 0.00 | 0.00 | 0.00 | 47 | 1005.3 |
| 20260506140203 | 19 | 312 | 3.2 | 6.4 | 0.00 | 0.00 | 0.00 | 46 | 1005.3 |
| 20260506140103 | 19 | 311 | 3.2 | 6.4 | 0.00 | 0.00 | 0.00 | 47 | 1005.3 |
| 20260506140004 | 18 | 310 | 3.2 | 6.4 | 0.00 | 0.00 | 0.00 | 47 | 1005.3 |
| 20260506135903 | 19 | 310 | 3.2 | 6.4 | 0.00 | 0.00 | 0.00 | 48 | 1005.3 |
| 20260506135803 | 18 | 309 | 3.2 | 6.4 | 0.00 | 0.00 | 0.00 | 47 | 1005.4 |
| 20260506135703 | 18 | 310 | 3.2 | 6.4 | 0.00 | 0.00 | 0.00 | 49 | 1005.4 |
| 20260506135603 | 18 | 310 | 3.2 | 6.4 | 0.00 | 0.00 | 0.00 | 48 | 1005.4 |
| 20260506135503 | 18 | 309 | 1.6 | 3.2 | 0.00 | 0.00 | 0.00 | 49 | 1005.4 |
| 20260506135403 | 18 | 305 | 3.2 | 4.8 | 0.00 | 0.00 | 0.00 | 50 | 1005.4 |
| 20260506135306 | 18 | 298 | 3.2 | 6.4 | 0.00 | 0.00 | 0.00 | 50 | 1005.4 |
| 20260506135203 | 18 | 295 | 3.2 | 6.4 | 0.00 | 0.00 | 0.00 | 49 | 1005.5 |
| 20260506135104 | 18 | 290 | 4.8 | 8.0 | 0.00 | 0.00 | 0.00 | 52 | 1005.5 |
| 20260506135004 | 18 | 286 | 4.8 | 8.0 | 0.00 | 0.00 | 0.00 | 51 | 1005.5 |
| 20260506134904 | 18 | 282 | 4.8 | 8.0 | 0.00 | 0.00 | 0.00 | 51 | 1005.5 |
| 20260506134803 | 18 | 279 | 4.8 | 8.0 | 0.00 | 0.00 | 0.00 | 52 | 1005.6 |
| 20260506134703 | 18 | 279 | 4.8 | 6.4 | 0.00 | 0.00 | 0.00 | 51 | 1005.6 |
| 20260506134603 | 18 | 280 | 6.4 | 9.7 | 0.00 | 0.00 | 0.00 | 51 | 1005.6 |
| 20260506134504 | 18 | 281 | 4.8 | 9.7 | 0.00 | 0.00 | 0.00 | 51 | 1005.6 |
| 20260506134403 | 18 | 283 | 3.2 | 9.7 | 0.00 | 0.00 | 0.00 | 50 | 1005.6 |
| 20260506134303 | 18 | 283 | 3.2 | 9.7 | 0.00 | 0.00 | 0.00 | 51 | 1005.6 |
| 20260506134203 | 18 | 282 | 3.2 | 6.4 | 0.00 | 0.00 | 0.00 | 52 | 1005.6 |
| 20260506134104 | 18 | 283 | 3.2 | 6.4 | 0.00 | 0.00 | 0.00 | 53 | 1005.6 |
| 20260506134004 | 18 | 285 | 4.8 | 8.0 | 0.00 | 0.00 | 0.00 | 51 | 1005.6 |
| 20260506133903 | 18 | 287 | 6.4 | 11.3 | 0.00 | 0.00 | 0.00 | 51 | 1005.6 |
| 20260506133803 | 18 | 289 | 6.4 | 11.3 | 0.00 | 0.00 | 0.00 | 51 | 1005.6 |
| 20260506133703 | 18 | 291 | 6.4 | 11.3 | 0.00 | 0.00 | 0.00 | 51 | 1005.6 |
| 20260506133604 | 18 | 293 | 4.8 | 11.3 | 0.00 | 0.00 | 0.00 | 51 | 1005.5 |
| 20260506133503 | 18 | 296 | 3.2 | 8.0 | 0.00 | 0.00 | 0.00 | 53 | 1005.5 |
| 20260506133403 | 18 | 300 | 3.2 | 9.7 | 0.00 | 0.00 | 0.00 | 52 | 1005.5 |
| 20260506133303 | 18 | 301 | 4.8 | 12.9 | 0.00 | 0.00 | 0.00 | 51 | 1005.5 |
| 20260506133204 | 18 | 300 | 6.4 | 12.9 | 0.00 | 0.00 | 0.00 | 51 | 1005.5 |
| 20260506133104 | 18 | 297 | 6.4 | 12.9 | 0.00 | 0.00 | 0.00 | 51 | 1005.4 |
| 20260506133003 | 18 | 293 | 8.0 | 12.9 | 0.00 | 0.00 | 0.00 | 50 | 1005.4 |
| 20260506132903 | 18 | 289 | 6.4 | 11.3 | 0.00 | 0.00 | 0.00 | 49 | 1005.4 |
| 20260506132803 | 18 | 286 | 4.8 | 9.7 | 0.00 | 0.00 | 0.00 | 51 | 1005.4 |
| 20260506132703 | 18 | 286 | 4.8 | 9.7 | 0.00 | 0.00 | 0.00 | 52 | 1005.4 |
| 20260506132604 | 18 | 285 | 4.8 | 9.7 | 0.00 | 0.00 | 0.00 | 51 | 1005.3 |
| 20260506132503 | 18 | 282 | 4.8 | 9.7 | 0.00 | 0.00 | 0.00 | 50 | 1005.3 |
| 20260506132403 | 18 | 276 | 4.8 | 9.7 | 0.00 | 0.00 | 0.00 | 51 | 1005.3 |
| 20260506132306 | 18 | 270 | 4.8 | 9.7 | 0.00 | 0.00 | 0.00 | 51 | 1005.3 |
| 20260506132203 | 18 | 263 | 4.8 | 8.0 | 0.00 | 0.00 | 0.00 | 51 | 1005.3 |
| 20260506132103 | 18 | 255 | 4.8 | 8.0 | 0.00 | 0.00 | 0.00 | 51 | 1005.4 |
| 20260506132005 | 18 | 248 | 3.2 | 8.0 | 0.00 | 0.00 | 0.00 | 50 | 1005.4 |
| 20260506131903 | 18 | 241 | 4.8 | 8.0 | 0.00 | 0.00 | 0.00 | 48 | 1005.4 |
| 20260506131803 | 18 | 236 | 3.2 | 8.0 | 0.00 | 0.00 | 0.00 | 48 | 1005.4 |
| 20260506131703 | 19 | 230 | 3.2 | 6.4 | 0.00 | 0.00 | 0.00 | 48 | 1005.4 |
| 20260506131604 | 19 | 227 | 3.2 | 6.4 | 0.00 | 0.00 | 0.00 | 47 | 1005.4 |
| 20260506131503 | 19 | 225 | 3.2 | 6.4 | 0.00 | 0.00 | 0.00 | 45 | 1005.4 |
| 20260506131403 | 19 | 225 | 1.6 | 6.4 | 0.00 | 0.00 | 0.00 | 42 | 1005.4 |
| 20260506131303 | 19 | 224 | 1.6 | 6.4 | 0.00 | 0.00 | 0.00 | 44 | 1005.4 |
| 20260506131203 | 19 | 226 | 1.6 | 3.2 | 0.00 | 0.00 | 0.00 | 42 | 1005.4 |
| 20260506131104 | 19 | 229 | 1.6 | 4.8 | 0.00 | 0.00 | 0.00 | 43 | 1005.4 |
| 20260506131004 | 19 | 230 | 1.6 | 4.8 | 0.00 | 0.00 | 0.00 | 44 | 1005.4 |
| 20260506130903 | 19 | 233 | 1.6 | 4.8 | 0.00 | 0.00 | 0.00 | 42 | 1005.4 |
| 20260506130803 | 19 | 236 | 0.0 | 4.8 | 0.00 | 0.00 | 0.00 | 44 | 1005.4 |
| 20260506130703 | 19 | 246 | 0.0 | 1.6 | 0.00 | 0.00 | 0.00 | 44 | 1005.4 |
| 20260506130604 | 19 | 254 | 0.0 | 1.6 | 0.00 | 0.00 | 0.00 | 44 | 1005.4 |
| 20260506130504 | 19 | 258 | 1.6 | 4.8 | 0.00 | 0.00 | 0.00 | 48 | 1005.4 |
| 20260506130403 | 19 | 257 | 1.6 | 4.8 | 0.00 | 0.00 | 0.00 | 48 | 1005.4 |
| 20260506130303 | 18 | 252 | 1.6 | 4.8 | 0.00 | 0.00 | 0.00 | 47 | 1005.5 |
| 20260506130203 | 18 | 248 | 3.2 | 6.4 | 0.00 | 0.00 | 0.00 | 47 | 1005.5 |
| 20260506130104 | 19 | 242 | 3.2 | 6.4 | 0.00 | 0.00 | 0.00 | 50 | 1005.5 |
| 20260506130003 | 18 | 239 | 3.2 | 6.4 | 0.00 | 0.00 | 0.00 | 50 | 1005.5 |
| 20260506125903 | 18 | 234 | 3.2 | 6.4 | 0.00 | 0.00 | 0.00 | 49 | 1005.5 |
| 20260506125803 | 18 | 232 | 3.2 | 6.4 | 0.00 | 0.00 | 0.00 | 49 | 1005.5 |
| 20260506125703 | 18 | 232 | 3.2 | 6.4 | 0.00 | 0.00 | 0.00 | 51 | 1005.5 |
| 20260506125604 | 18 | 232 | 3.2 | 6.4 | 0.00 | 0.00 | 0.00 | 49 | 1005.5 |
| 20260506125503 | 19 | 234 | 3.2 | 6.4 | 0.00 | 0.00 | 0.00 | 48 | 1005.5 |
| 20260506125403 | 19 | 238 | 3.2 | 6.4 | 0.00 | 0.00 | 0.00 | 48 | 1005.5 |
| 20260506125305 | 19 | 244 | 1.6 | 6.4 | 0.00 | 0.00 | 0.00 | 47 | 1005.5 |
| 20260506125204 | 19 | 250 | 3.2 | 6.4 | 0.00 | 0.00 | 0.00 | 47 | 1005.5 |
| 20260506125104 | 19 | 252 | 3.2 | 6.4 | 0.00 | 0.00 | 0.00 | 46 | 1005.5 |
| 20260506125003 | 19 | 257 | 3.2 | 6.4 | 0.00 | 0.00 | 0.00 | 46 | 1005.5 |
| 20260506124903 | 19 | 260 | 3.2 | 6.4 | 0.00 | 0.00 | 0.00 | 45 | 1005.5 |
| 20260506124803 | 20 | 262 | 3.2 | 6.4 | 0.00 | 0.00 | 0.00 | 47 | 1005.5 |
| 20260506124704 | 20 | 265 | 3.2 | 9.7 | 0.00 | 0.00 | 0.00 | 47 | 1005.5 |
| 20260506124604 | 20 | 268 | 3.2 | 9.7 | 0.00 | 0.00 | 0.00 | 47 | 1005.5 |
| 20260506124504 | 20 | 271 | 3.2 | 9.7 | 0.00 | 0.00 | 0.00 | 48 | 1005.6 |
| 20260506124403 | 19 | 270 | 4.8 | 9.7 | 0.00 | 0.00 | 0.00 | 46 | 1005.6 |
| 20260506124303 | 19 | 267 | 6.4 | 8.0 | 0.00 | 0.00 | 0.00 | 48 | 1005.6 |
| 20260506124203 | 19 | 263 | 6.4 | 8.0 | 0.00 | 0.00 | 0.00 | 49 | 1005.6 |
| 20260506124104 | 19 | 257 | 6.4 | 8.0 | 0.00 | 0.00 | 0.00 | 47 | 1005.6 |
| 20260506124004 | 19 | 253 | 6.4 | 8.0 | 0.00 | 0.00 | 0.00 | 47 | 1005.6 |
| 20260506123904 | 19 | 251 | 6.4 | 8.0 | 0.00 | 0.00 | 0.00 | 46 | 1005.7 |
| 20260506123804 | 19 | 252 | 6.4 | 9.7 | 0.00 | 0.00 | 0.00 | 46 | 1005.7 |
| 20260506123703 | 19 | 254 | 4.8 | 9.7 | 0.00 | 0.00 | 0.00 | 45 | 1005.7 |
| 20260506123603 | 19 | 255 | 3.2 | 9.7 | 0.00 | 0.00 | 0.00 | 44 | 1005.7 |
| 20260506123503 | 19 | 260 | 3.2 | 9.7 | 0.00 | 0.00 | 0.00 | 44 | 1005.8 |
| 20260506123404 | 19 | 269 | 1.6 | 6.4 | 0.00 | 0.00 | 0.00 | 44 | 1005.8 |
| 20260506123304 | 19 | 277 | 1.6 | 4.8 | 0.00 | 0.00 | 0.00 | 46 | 1005.8 |
| 20260506123204 | 19 | 281 | 3.2 | 6.4 | 0.00 | 0.00 | 0.00 | 44 | 1005.8 |
| 20260506123103 | 19 | 284 | 3.2 | 6.4 | 0.00 | 0.00 | 0.00 | 45 | 1005.8 |
| 20260506123003 | 19 | 288 | 1.6 | 6.4 | 0.00 | 0.00 | 0.00 | 45 | 1005.9 |
| 20260506122903 | 19 | 297 | 3.2 | 8.0 | 0.00 | 0.00 | 0.00 | 44 | 1005.9 |
| 20260506122803 | 19 | 304 | 3.2 | 8.0 | 0.00 | 0.00 | 0.00 | 44 | 1005.9 |
| 20260506122703 | 19 | 306 | 3.2 | 8.0 | 0.00 | 0.00 | 0.00 | 47 | 1005.9 |
| 20260506122603 | 19 | 308 | 3.2 | 8.0 | 0.00 | 0.00 | 0.00 | 48 | 1006.0 |
| 20260506122503 | 19 | 314 | 3.2 | 8.0 | 0.00 | 0.00 | 0.00 | 47 | 1006.0 |
| 20260506122403 | 18 | 323 | 1.6 | 6.4 | 0.00 | 0.00 | 0.00 | 47 | 1006.0 |
| 20260506122305 | 18 | 332 | 0.0 | 3.2 | 0.00 | 0.00 | 0.00 | 47 | 1006.0 |
| 20260506122204 | 18 | 346 | 1.6 | 3.2 | 0.00 | 0.00 | 0.00 | 46 | 1006.0 |
| 20260506122103 | 18 | 350 | 1.6 | 3.2 | 0.00 | 0.00 | 0.00 | 47 | 1006.0 |
| 20260506122003 | 18 | 351 | 1.6 | 4.8 | 0.00 | 0.00 | 0.00 | 46 | 1006.0 |
| 20260506121903 | 18 | 351 | 1.6 | 4.8 | 0.00 | 0.00 | 0.00 | 46 | 1006.0 |
| 20260506121803 | 18 | 348 | 1.6 | 4.8 | 0.00 | 0.00 | 0.00 | 46 | 1006.0 |
| 20260506121703 | 18 | 347 | 1.6 | 4.8 | 0.00 | 0.00 | 0.00 | 46 | 1006.1 |
| 20260506121603 | 19 | 340 | 1.6 | 8.0 | 0.00 | 0.00 | 0.00 | 46 | 1006.1 |
| 20260506121504 | 19 | 340 | 1.6 | 8.0 | 0.00 | 0.00 | 0.00 | 46 | 1006.1 |
| 20260506121404 | 19 | 340 | 3.2 | 8.0 | 0.00 | 0.00 | 0.00 | 46 | 1006.1 |
| 20260506121304 | 19 | 340 | 3.2 | 8.0 | 0.00 | 0.00 | 0.00 | 46 | 1006.0 |
| 20260506121203 | 19 | 337 | 1.6 | 6.4 | 0.00 | 0.00 | 0.00 | 47 | 1006.0 |
| 20260506121103 | 19 | 334 | 1.6 | 6.4 | 0.00 | 0.00 | 0.00 | 46 | 1006.1 |
| 20260506121003 | 19 | 330 | 1.6 | 6.4 | 0.00 | 0.00 | 0.00 | 48 | 1006.0 |
| 20260506120904 | 19 | 322 | 1.6 | 6.4 | 0.00 | 0.00 | 0.00 | 48 | 1006.0 |
| 20260506120803 | 18 | 310 | 1.6 | 4.8 | 0.00 | 0.00 | 0.00 | 47 | 1006.1 |
| 20260506120703 | 19 | 305 | 1.6 | 4.8 | 0.00 | 0.00 | 0.00 | 47 | 1006.1 |
| 20260506120603 | 19 | 302 | 1.6 | 4.8 | 0.00 | 0.00 | 0.00 | 48 | 1006.1 |
| 20260506120504 | 19 | 306 | 3.2 | 8.0 | 0.00 | 0.00 | 0.00 | 47 | 1006.1 |
| 20260506120404 | 19 | 309 | 3.2 | 9.7 | 0.00 | 0.00 | 0.00 | 47 | 1006.1 |
| 20260506120304 | 19 | 310 | 3.2 | 9.7 | 0.00 | 0.00 | 0.00 | 47 | 1006.1 |
| 20260506120203 | 19 | 312 | 3.2 | 9.7 | 0.00 | 0.00 | 0.00 | 47 | 1006.1 |
| 20260506120103 | 20 | 310 | 3.2 | 9.7 | 0.00 | 0.00 | 0.00 | 47 | 1006.1 |
| 20260506120004 | 19 | 303 | 3.2 | 9.7 | 0.00 | 0.00 | 0.00 | 48 | 1006.1 |
| 20260506115903 | 19 | 300 | 6.4 | 12.9 | 0.00 | 0.00 | 0.00 | 48 | 1006.1 |
| 20260506115804 | 19 | 300 | 6.4 | 12.9 | 0.00 | 0.00 | 0.00 | 47 | 1006.1 |
| 20260506115704 | 19 | 301 | 6.4 | 12.9 | 0.00 | 0.00 | 0.00 | 47 | 1006.1 |
| 20260506115604 | 19 | 302 | 6.4 | 12.9 | 0.00 | 0.00 | 0.00 | 47 | 1006.2 |
| 20260506115504 | 19 | 305 | 4.8 | 9.7 | 0.00 | 0.00 | 0.00 | 53 | 1006.2 |
| 20260506115403 | 18 | 306 | 4.8 | 8.0 | 0.00 | 0.00 | 0.00 | 51 | 1006.2 |
| 20260506115306 | 18 | 304 | 4.8 | 8.0 | 0.00 | 0.00 | 0.00 | 52 | 1006.2 |
| 20260506115203 | 18 | 303 | 4.8 | 8.0 | 0.00 | 0.00 | 0.00 | 51 | 1006.2 |
| 20260506115104 | 17 | 302 | 6.4 | 8.0 | 0.00 | 0.00 | 0.00 | 50 | 1006.2 |
| 20260506115003 | 18 | 299 | 6.4 | 9.7 | 0.00 | 0.00 | 0.00 | 50 | 1006.4 |
| 20260506114903 | 18 | 298 | 6.4 | 9.7 | 0.00 | 0.00 | 0.00 | 51 | 1006.4 |
| 20260506114803 | 18 | 296 | 6.4 | 9.7 | 0.00 | 0.00 | 0.00 | 51 | 1006.4 |
| 20260506114703 | 18 | 296 | 4.8 | 9.7 | 0.00 | 0.00 | 0.00 | 50 | 1006.4 |
| 20260506114604 | 18 | 297 | 4.8 | 8.0 | 0.00 | 0.00 | 0.00 | 51 | 1006.4 |
| 20260506114503 | 18 | 295 | 4.8 | 9.7 | 0.00 | 0.00 | 0.00 | 50 | 1006.4 |
| 20260506114403 | 18 | 293 | 4.8 | 9.7 | 0.00 | 0.00 | 0.00 | 49 | 1006.4 |
| 20260506114303 | 18 | 292 | 4.8 | 9.7 | 0.00 | 0.00 | 0.00 | 47 | 1006.4 |
| 20260506114204 | 18 | 290 | 6.4 | 9.7 | 0.00 | 0.00 | 0.00 | 48 | 1006.4 |
| 20260506114103 | 18 | 287 | 6.4 | 9.7 | 0.00 | 0.00 | 0.00 | 50 | 1006.4 |
| 20260506114003 | 18 | 285 | 6.4 | 9.7 | 0.00 | 0.00 | 0.00 | 49 | 1006.5 |
| 20260506113903 | 18 | 283 | 6.4 | 9.7 | 0.00 | 0.00 | 0.00 | 51 | 1006.5 |
| 20260506113804 | 18 | 284 | 6.4 | 9.7 | 0.00 | 0.00 | 0.00 | 52 | 1006.5 |
| 20260506113704 | 18 | 288 | 6.4 | 11.3 | 0.00 | 0.00 | 0.00 | 50 | 1006.5 |
| 20260506113604 | 18 | 293 | 6.4 | 12.9 | 0.00 | 0.00 | 0.00 | 49 | 1006.5 |
| 20260506113503 | 18 | 299 | 9.7 | 14.5 | 0.00 | 0.00 | 0.00 | 51 | 1006.5 |
| 20260506113403 | 18 | 303 | 9.7 | 14.5 | 0.00 | 0.00 | 0.00 | 51 | 1006.5 |
| 20260506113303 | 18 | 305 | 8.0 | 14.5 | 0.00 | 0.00 | 0.00 | 51 | 1006.5 |
| 20260506113204 | 18 | 306 | 8.0 | 14.5 | 0.00 | 0.00 | 0.00 | 50 | 1006.5 |
| 20260506113104 | 18 | 304 | 6.4 | 11.3 | 0.00 | 0.00 | 0.00 | 51 | 1006.5 |
| 20260506113003 | 18 | 303 | 6.4 | 9.7 | 0.00 | 0.00 | 0.00 | 51 | 1006.5 |
| 20260506112903 | 18 | 302 | 6.4 | 9.7 | 0.00 | 0.00 | 0.00 | 51 | 1006.5 |
| 20260506112803 | 18 | 302 | 4.8 | 8.0 | 0.00 | 0.00 | 0.00 | 50 | 1006.6 |
| 20260506112704 | 18 | 303 | 4.8 | 9.7 | 0.00 | 0.00 | 0.00 | 50 | 1006.6 |
| 20260506112603 | 18 | 304 | 6.4 | 12.9 | 0.00 | 0.00 | 0.00 | 49 | 1006.6 |
| 20260506112503 | 18 | 304 | 8.0 | 12.9 | 0.00 | 0.00 | 0.00 | 50 | 1006.6 |
| 20260506112403 | 18 | 306 | 9.7 | 12.9 | 0.00 | 0.00 | 0.00 | 50 | 1006.6 |
| 20260506112306 | 18 | 309 | 8.0 | 12.9 | 0.00 | 0.00 | 0.00 | 51 | 1006.6 |
| 20260506112204 | 18 | 314 | 8.0 | 12.9 | 0.00 | 0.00 | 0.00 | 50 | 1006.6 |
| 20260506112103 | 18 | 320 | 4.8 | 11.3 | 0.00 | 0.00 | 0.00 | 51 | 1006.6 |
| 20260506112003 | 18 | 325 | 3.2 | 8.0 | 0.00 | 0.00 | 0.00 | 49 | 1006.7 |
| 20260506111903 | 18 | 332 | 3.2 | 8.0 | 0.00 | 0.00 | 0.00 | 51 | 1006.7 |
| 20260506111804 | 18 | 343 | 3.2 | 9.7 | 0.00 | 0.00 | 0.00 | 51 | 1006.7 |
| 20260506111704 | 18 | 350 | 3.2 | 9.7 | 0.00 | 0.00 | 0.00 | 50 | 1006.7 |
| 20260506111603 | 18 | 354 | 6.4 | 11.3 | 0.00 | 0.00 | 0.00 | 50 | 1006.8 |
| 20260506111503 | 18 | 357 | 6.4 | 11.3 | 0.00 | 0.00 | 0.00 | 50 | 1006.8 |
| 20260506111403 | 18 | 359 | 8.0 | 11.3 | 0.00 | 0.00 | 0.00 | 50 | 1006.8 |
| 20260506111304 | 18 | 1 | 6.4 | 11.3 | 0.00 | 0.00 | 0.00 | 50 | 1006.8 |
| 20260506111204 | 18 | 5 | 6.4 | 9.7 | 0.00 | 0.00 | 0.00 | 50 | 1006.8 |
| 20260506111103 | 18 | 11 | 6.4 | 9.7 | 0.00 | 0.00 | 0.00 | 52 | 1006.8 |
| 20260506111003 | 18 | 18 | 6.4 | 11.3 | 0.00 | 0.00 | 0.00 | 50 | 1006.8 |
| 20260506110903 | 18 | 23 | 6.4 | 11.3 | 0.00 | 0.00 | 0.00 | 50 | 1006.8 |
| 20260506110803 | 18 | 27 | 6.4 | 11.3 | 0.00 | 0.00 | 0.00 | 49 | 1006.8 |
| 20260506110704 | 18 | 31 | 4.8 | 11.3 | 0.00 | 0.00 | 0.00 | 49 | 1006.8 |
| 20260506110603 | 18 | 36 | 3.2 | 6.4 | 0.00 | 0.00 | 0.00 | 50 | 1006.8 |
| 20260506110503 | 19 | 41 | 3.2 | 6.4 | 0.00 | 0.00 | 0.00 | 49 | 1006.8 |
| 20260506110403 | 19 | 46 | 3.2 | 6.4 | 0.00 | 0.00 | 0.00 | 50 | 1006.8 |
| 20260506110303 | 19 | 50 | 3.2 | 6.4 | 0.00 | 0.00 | 0.00 | 49 | 1006.8 |
| 20260506110204 | 18 | 55 | 3.2 | 6.4 | 0.00 | 0.00 | 0.00 | 49 | 1006.8 |
| 20260506110004 | 18 | 60 | 3.2 | 6.4 | 0.00 | 0.00 | 0.00 | 52 | 1006.8 |
| 20260506105903 | 18 | 63 | 3.2 | 6.4 | 0.00 | 0.00 | 0.00 | 51 | 1006.8 |
| 20260506105804 | 18 | 65 | 3.2 | 6.4 | 0.00 | 0.00 | 0.00 | 50 | 1006.8 |
| 20260506105703 | 18 | 66 | 3.2 | 6.4 | 0.00 | 0.00 | 0.00 | 50 | 1006.8 |
| 20260506105603 | 18 | 67 | 3.2 | 6.4 | 0.00 | 0.00 | 0.00 | 50 | 1006.8 |
| 20260506105503 | 18 | 67 | 3.2 | 4.8 | 0.00 | 0.00 | 0.00 | 50 | 1006.8 |
| 20260506105404 | 18 | 68 | 3.2 | 4.8 | 0.00 | 0.00 | 0.00 | 52 | 1006.8 |
| 20260506105305 | 18 | 69 | 1.6 | 4.8 | 0.00 | 0.00 | 0.00 | 52 | 1006.8 |
| 20260506105204 | 18 | 74 | 1.6 | 4.8 | 0.00 | 0.00 | 0.00 | 50 | 1006.8 |
| 20260506105103 | 18 | 80 | 1.6 | 4.8 | 0.00 | 0.00 | 0.00 | 51 | 1006.8 |
| 20260506105003 | 18 | 86 | 1.6 | 6.4 | 0.00 | 0.00 | 0.00 | 50 | 1006.9 |
| 20260506104903 | 18 | 88 | 3.2 | 8.0 | 0.00 | 0.00 | 0.00 | 52 | 1006.9 |
| 20260506104803 | 17 | 92 | 3.2 | 8.0 | 0.00 | 0.00 | 0.00 | 53 | 1006.9 |
| 20260506104704 | 17 | 94 | 4.8 | 8.0 | 0.00 | 0.00 | 0.00 | 53 | 1006.9 |
| 20260506104604 | 17 | 98 | 4.8 | 8.0 | 0.00 | 0.00 | 0.00 | 53 | 1006.9 |
| 20260506104503 | 18 | 107 | 3.2 | 8.0 | 0.00 | 0.00 | 0.00 | 53 | 1006.9 |
| 20260506104403 | 18 | 113 | 4.8 | 8.0 | 0.00 | 0.00 | 0.00 | 54 | 1006.9 |
| 20260506104303 | 18 | 119 | 4.8 | 8.0 | 0.00 | 0.00 | 0.00 | 53 | 1006.9 |
| 20260506104203 | 18 | 121 | 4.8 | 9.7 | 0.00 | 0.00 | 0.00 | 55 | 1007.0 |
| 20260506104104 | 17 | 122 | 6.4 | 9.7 | 0.00 | 0.00 | 0.00 | 55 | 1007.0 |
| 20260506104004 | 17 | 121 | 6.4 | 9.7 | 0.00 | 0.00 | 0.00 | 55 | 1007.0 |
| 20260506103903 | 17 | 120 | 4.8 | 9.7 | 0.00 | 0.00 | 0.00 | 55 | 1007.0 |
| 20260506103803 | 17 | 121 | 4.8 | 9.7 | 0.00 | 0.00 | 0.00 | 55 | 1007.0 |
| 20260506103703 | 17 | 122 | 3.2 | 9.7 | 0.00 | 0.00 | 0.00 | 56 | 1007.0 |
| 20260506103604 | 17 | 126 | 1.6 | 6.4 | 0.00 | 0.00 | 0.00 | 56 | 1007.0 |
| 20260506103504 | 17 | 131 | 1.6 | 6.4 | 0.00 | 0.00 | 0.00 | 56 | 1007.0 |
| 20260506103403 | 17 | 134 | 1.6 | 6.4 | 0.00 | 0.00 | 0.00 | 56 | 1007.1 |
| 20260506103303 | 17 | 133 | 1.6 | 6.4 | 0.00 | 0.00 | 0.00 | 56 | 1007.1 |
| 20260506103203 | 17 | 131 | 3.2 | 6.4 | 0.00 | 0.00 | 0.00 | 56 | 1007.1 |
| 20260506103104 | 17 | 129 | 3.2 | 8.0 | 0.00 | 0.00 | 0.00 | 55 | 1007.1 |
| 20260506103004 | 17 | 127 | 3.2 | 8.0 | 0.00 | 0.00 | 0.00 | 55 | 1007.1 |
| 20260506102904 | 17 | 127 | 3.2 | 8.0 | 0.00 | 0.00 | 0.00 | 54 | 1007.1 |
| 20260506102804 | 17 | 128 | 3.2 | 8.0 | 0.00 | 0.00 | 0.00 | 53 | 1007.1 |
| 20260506102704 | 18 | 129 | 1.6 | 4.8 | 0.00 | 0.00 | 0.00 | 52 | 1007.1 |
| 20260506102604 | 18 | 130 | 1.6 | 4.8 | 0.00 | 0.00 | 0.00 | 49 | 1007.1 |
| 20260506102504 | 18 | 130 | 0.0 | 4.8 | 0.00 | 0.00 | 0.00 | 47 | 1007.1 |
| 20260506102404 | 18 | 123 | 0.0 | 4.8 | 0.00 | 0.00 | 0.00 | 49 | 1007.1 |
| 20260506102305 | 18 | 113 | 0.0 | 1.6 | 0.00 | 0.00 | 0.00 | 49 | 1007.1 |
| 20260506102203 | 18 | 112 | 0.0 | 1.6 | 0.00 | 0.00 | 0.00 | 49 | 1007.1 |
| 20260506102103 | 17 | 116 | 1.6 | 4.8 | 0.00 | 0.00 | 0.00 | 49 | 1007.1 |
| 20260506102003 | 17 | 116 | 1.6 | 4.8 | 0.00 | 0.00 | 0.00 | 49 | 1007.2 |
| 20260506101903 | 18 | 117 | 1.6 | 4.8 | 0.00 | 0.00 | 0.00 | 49 | 1007.2 |
| 20260506101804 | 18 | 119 | 1.6 | 4.8 | 0.00 | 0.00 | 0.00 | 48 | 1007.2 |
| 20260506101704 | 18 | 128 | 0.0 | 3.2 | 0.00 | 0.00 | 0.00 | 49 | 1007.2 |
| 20260506101603 | 18 | 134 | 0.0 | 4.8 | 0.00 | 0.00 | 0.00 | 48 | 1007.2 |
| 20260506101503 | 18 | 141 | 1.6 | 12.9 | 0.00 | 0.00 | 0.00 | 48 | 1007.2 |
| 20260506101403 | 18 | 146 | 4.8 | 16.1 | 0.00 | 0.00 | 0.00 | 48 | 1007.2 |
| 20260506101304 | -17 | 0.0 | 0.0 | 0.00 | 0.00 | 0.00 | |||
| 20260506101103 | 19 | 152 | 4.8 | 16.1 | 0.00 | 0.00 | 0.00 | 46 | 1007.2 |
| 20260506101003 | 20 | 155 | 3.2 | 14.5 | 0.00 | 0.00 | 0.00 | 47 | 1007.2 |
| 20260506100903 | 19 | 156 | 1.6 | 6.4 | 0.00 | 0.00 | 0.00 | 48 | 1007.2 |
| 20260506100803 | 19 | 157 | 1.6 | 6.4 | 0.00 | 0.00 | 0.00 | 48 | 1007.2 |
| 20260506100704 | 19 | 161 | 1.6 | 3.2 | 0.00 | 0.00 | 0.00 | 47 | 1007.2 |
| 20260506100604 | 18 | 168 | 1.6 | 4.8 | 0.00 | 0.00 | 0.00 | 46 | 1007.2 |
| 20260506100503 | 18 | 171 | 1.6 | 6.4 | 0.00 | 0.00 | 0.00 | 46 | 1007.2 |
| 20260506100403 | 18 | 175 | 3.2 | 9.7 | 0.00 | 0.00 | 0.00 | 47 | 1007.2 |
| 20260506100303 | 18 | 178 | 3.2 | 9.7 | 0.00 | 0.00 | 0.00 | 48 | 1007.2 |
| 20260506100204 | 18 | 183 | 3.2 | 9.7 | 0.00 | 0.00 | 0.00 | 48 | 1007.2 |
| 20260506100104 | 18 | 190 | 3.2 | 9.7 | 0.00 | 0.00 | 0.00 | 48 | 1007.2 |
| 20260506100003 | 18 | 196 | 3.2 | 8.0 | 0.00 | 0.00 | 0.00 | 48 | 1007.2 |
| 20260506095903 | 18 | 199 | 3.2 | 8.0 | 0.00 | 0.00 | 0.00 | 48 | 1007.2 |
| 20260506095803 | 18 | 201 | 4.8 | 8.0 | 0.00 | 0.00 | 0.00 | 50 | 1007.2 |
| 20260506095703 | 18 | 204 | 3.2 | 6.4 | 0.00 | 0.00 | 0.00 | 48 | 1007.2 |
| 20260506095604 | 18 | 210 | 4.8 | 8.0 | 0.00 | 0.00 | 0.00 | 50 | 1007.2 |
| 20260506095504 | 18 | 215 | 4.8 | 8.0 | 0.00 | 0.00 | 0.00 | 50 | 1007.2 |
| 20260506095404 | 18 | 218 | 3.2 | 8.0 | 0.00 | 0.00 | 0.00 | 51 | 1007.2 |
| 20260506095305 | 17 | 223 | 3.2 | 8.0 | 0.00 | 0.00 | 0.00 | 50 | 1007.3 |
| 20260506095203 | 17 | 225 | 3.2 | 8.0 | 0.00 | 0.00 | 0.00 | 49 | 1007.3 |
| 20260506095103 | 17 | 224 | 3.2 | 6.4 | 0.00 | 0.00 | 0.00 | 51 | 1007.3 |
| 20260506095003 | 17 | 222 | 3.2 | 6.4 | 0.00 | 0.00 | 0.00 | 50 | 1007.3 |
| 20260506094903 | 17 | 219 | 3.2 | 6.4 | 0.00 | 0.00 | 0.00 | 50 | 1007.3 |
| 20260506094804 | 17 | 215 | 3.2 | 6.4 | 0.00 | 0.00 | 0.00 | 49 | 1007.3 |
| 20260506094704 | 18 | 213 | 3.2 | 6.4 | 0.00 | 0.00 | 0.00 | 49 | 1007.3 |
| 20260506094603 | 18 | 211 | 1.6 | 4.8 | 0.00 | 0.00 | 0.00 | 50 | 1007.3 |
| 20260506094503 | 18 | 210 | 3.2 | 6.4 | 0.00 | 0.00 | 0.00 | 50 | 1007.3 |
| 20260506094403 | 18 | 207 | 3.2 | 6.4 | 0.00 | 0.00 | 0.00 | 51 | 1007.3 |
| 20260506094303 | 17 | 205 | 3.2 | 6.4 | 0.00 | 0.00 | 0.00 | 51 | 1007.3 |
| 20260506094204 | 17 | 203 | 4.8 | 11.3 | 0.00 | 0.00 | 0.00 | 49 | 1007.3 |
| 20260506094103 | 17 | 202 | 4.8 | 11.3 | 0.00 | 0.00 | 0.00 | 50 | 1007.3 |
| 20260506094004 | 17 | 202 | 3.2 | 11.3 | 0.00 | 0.00 | 0.00 | 50 | 1007.3 |
| 20260506093903 | 18 | 204 | 3.2 | 11.3 | 0.00 | 0.00 | 0.00 | 50 | 1007.4 |
| 20260506093803 | 17 | 204 | 1.6 | 11.3 | 0.00 | 0.00 | 0.00 | 50 | 1007.4 |
| 20260506093703 | 17 | 191 | 1.6 | 3.2 | 0.00 | 0.00 | 0.00 | 50 | 1007.4 |
| 20260506093604 | 17 | 181 | 1.6 | 3.2 | 0.00 | 0.00 | 0.00 | 50 | 1007.4 |
| 20260506093504 | 17 | 174 | 1.6 | 6.4 | 0.00 | 0.00 | 0.00 | 50 | 1007.4 |
| 20260506093404 | 17 | 168 | 3.2 | 9.7 | 0.00 | 0.00 | 0.00 | 50 | 1007.4 |
| 20260506093304 | 17 | 163 | 3.2 | 9.7 | 0.00 | 0.00 | 0.00 | 50 | 1007.4 |
| 20260506093204 | 17 | 158 | 6.4 | 12.9 | 0.00 | 0.00 | 0.00 | 50 | 1007.4 |
| 20260506093103 | 17 | 152 | 6.4 | 16.1 | 0.00 | 0.00 | 0.00 | 50 | 1007.4 |
| 20260506093004 | 17 | 150 | 6.4 | 16.1 | 0.00 | 0.00 | 0.00 | 52 | 1007.4 |
| 20260506092903 | 17 | 148 | 6.4 | 16.1 | 0.00 | 0.00 | 0.00 | 52 | 1007.5 |
| 20260506092803 | 17 | 148 | 4.8 | 16.1 | 0.00 | 0.00 | 0.00 | 54 | 1007.5 |
| 20260506092703 | 17 | 153 | 4.8 | 12.9 | 0.00 | 0.00 | 0.00 | 54 | 1007.5 |
| 20260506092603 | 17 | 158 | 6.4 | 12.9 | 0.00 | 0.00 | 0.00 | 53 | 1007.5 |
| 20260506092504 | 17 | 161 | 6.4 | 12.9 | 0.00 | 0.00 | 0.00 | 52 | 1007.5 |
| 20260506092404 | 17 | 164 | 4.8 | 11.3 | 0.00 | 0.00 | 0.00 | 51 | 1007.5 |
| 20260506092306 | 17 | 165 | 4.8 | 12.9 | 0.00 | 0.00 | 0.00 | 51 | 1007.6 |
| 20260506092204 | 17 | 163 | 4.8 | 12.9 | 0.00 | 0.00 | 0.00 | 53 | 1007.6 |
| 20260506092104 | 17 | 159 | 4.8 | 12.9 | 0.00 | 0.00 | 0.00 | 52 | 1007.6 |
| 20260506092003 | 17 | 156 | 4.8 | 12.9 | 0.00 | 0.00 | 0.00 | 51 | 1007.6 |
| 20260506091903 | 17 | 146 | 4.8 | 12.9 | 0.00 | 0.00 | 0.00 | 52 | 1007.6 |
| 20260506091803 | 17 | 141 | 4.8 | 11.3 | 0.00 | 0.00 | 0.00 | 53 | 1007.6 |
| 20260506091703 | 17 | 137 | 6.4 | 12.9 | 0.00 | 0.00 | 0.00 | 54 | 1007.6 |
| 20260506091604 | 17 | 134 | 6.4 | 12.9 | 0.00 | 0.00 | 0.00 | 56 | 1007.6 |
| 20260506091503 | 17 | 132 | 3.2 | 12.9 | 0.00 | 0.00 | 0.00 | 56 | 1007.6 |
| 20260506091403 | 16 | 127 | 3.2 | 12.9 | 0.00 | 0.00 | 0.00 | 55 | 1007.6 |
| 20260506091304 | 16 | 121 | 3.2 | 9.7 | 0.00 | 0.00 | 0.00 | 55 | 1007.6 |
| 20260506091203 | 16 | 121 | 3.2 | 14.5 | 0.00 | 0.00 | 0.00 | 55 | 1007.6 |
| 20260506091103 | 16 | 122 | 4.8 | 14.5 | 0.00 | 0.00 | 0.00 | 55 | 1007.6 |
| 20260506091003 | 16 | 124 | 4.8 | 14.5 | 0.00 | 0.00 | 0.00 | 57 | 1007.6 |
| 20260506090904 | 16 | 127 | 4.8 | 14.5 | 0.00 | 0.00 | 0.00 | 55 | 1007.5 |
| 20260506090804 | 16 | 133 | 3.2 | 9.7 | 0.00 | 0.00 | 0.00 | 54 | 1007.6 |
| 20260506090704 | 16 | 137 | 3.2 | 9.7 | 0.00 | 0.00 | 0.00 | 54 | 1007.6 |
| 20260506090603 | 17 | 142 | 3.2 | 9.7 | 0.00 | 0.00 | 0.00 | 54 | 1007.6 |
| 20260506090504 | 16 | 146 | 4.8 | 9.7 | 0.00 | 0.00 | 0.00 | 55 | 1007.5 |
| 20260506090404 | 17 | 146 | 4.8 | 9.7 | 0.00 | 0.00 | 0.00 | 55 | 1007.5 |
| 20260506090303 | 17 | 147 | 4.8 | 9.7 | 0.00 | 0.00 | 0.00 | 55 | 1007.5 |
| 20260506090203 | 17 | 146 | 4.8 | 11.3 | 0.00 | 0.00 | 0.00 | 54 | 1007.5 |
| 20260506090103 | 17 | 143 | 6.4 | 14.5 | 0.00 | 0.00 | 0.00 | 55 | 1007.5 |
| 20260506090004 | 16 | 140 | 6.4 | 14.5 | 0.00 | 0.00 | 0.00 | 57 | 1007.5 |
| 20260506085904 | 16 | 139 | 8.0 | 14.5 | 0.00 | 0.00 | 0.00 | 57 | 1007.5 |
| 20260506085804 | 16 | 136 | 8.0 | 14.5 | 0.00 | 0.00 | 0.00 | 57 | 1007.5 |
| 20260506085704 | 16 | 135 | 6.4 | 12.9 | 0.00 | 0.00 | 0.00 | 58 | 1007.5 |
| 20260506085603 | 16 | 134 | 4.8 | 9.7 | 0.00 | 0.00 | 0.00 | 58 | 1007.5 |
| 20260506085503 | 16 | 136 | 6.4 | 12.9 | 0.00 | 0.00 | 0.00 | 58 | 1007.6 |
| 20260506085403 | 16 | 140 | 6.4 | 14.5 | 0.00 | 0.00 | 0.00 | 58 | 1007.6 |
| 20260506085306 | 16 | 144 | 6.4 | 14.5 | 0.00 | 0.00 | 0.00 | 58 | 1007.6 |
| 20260506085204 | 16 | 146 | 4.8 | 14.5 | 0.00 | 0.00 | 0.00 | 57 | 1007.6 |
| 20260506085104 | 16 | 150 | 4.8 | 14.5 | 0.00 | 0.00 | 0.00 | 58 | 1007.6 |
| 20260506085004 | 16 | 152 | 3.2 | 12.9 | 0.00 | 0.00 | 0.00 | 58 | 1007.6 |
| 20260506084903 | 16 | 154 | 3.2 | 12.9 | 0.00 | 0.00 | 0.00 | 57 | 1007.6 |
| 20260506084803 | 16 | 156 | 4.8 | 12.9 | 0.00 | 0.00 | 0.00 | 57 | 1007.6 |
| 20260506084703 | 16 | 160 | 4.8 | 12.9 | 0.00 | 0.00 | 0.00 | 59 | 1007.6 |
| 20260506084604 | 16 | 165 | 4.8 | 9.7 | 0.00 | 0.00 | 0.00 | 59 | 1007.6 |
| 20260506084504 | 16 | 170 | 4.8 | 8.0 | 0.00 | 0.00 | 0.00 | 58 | 1007.6 |
| 20260506084403 | 16 | 172 | 4.8 | 11.3 | 0.00 | 0.00 | 0.00 | 58 | 1007.6 |
| 20260506084303 | 16 | 173 | 6.4 | 11.3 | 0.00 | 0.00 | 0.00 | 57 | 1007.6 |
| 20260506084203 | 16 | 174 | 6.4 | 11.3 | 0.00 | 0.00 | 0.00 | 58 | 1007.8 |
| 20260506084103 | 16 | 176 | 6.4 | 11.3 | 0.00 | 0.00 | 0.00 | 60 | 1007.8 |
| 20260506084004 | 16 | 178 | 6.4 | 11.3 | 0.00 | 0.00 | 0.00 | 60 | 1007.8 |
| 20260506083904 | 16 | 179 | 4.8 | 11.3 | 0.00 | 0.00 | 0.00 | 59 | 1007.8 |
| 20260506083804 | 16 | 181 | 4.8 | 11.3 | 0.00 | 0.00 | 0.00 | 59 | 1007.8 |
| 20260506083704 | 16 | 184 | 3.2 | 9.7 | 0.00 | 0.00 | 0.00 | 61 | 1007.6 |
| 20260506083603 | 16 | 187 | 3.2 | 9.7 | 0.00 | 0.00 | 0.00 | 60 | 1007.6 |
| 20260506083504 | 16 | 191 | 4.8 | 9.7 | 0.00 | 0.00 | 0.00 | 62 | 1007.6 |
| 20260506083403 | 16 | 194 | 3.2 | 9.7 | 0.00 | 0.00 | 0.00 | 60 | 1007.6 |
| 20260506083303 | 16 | 195 | 3.2 | 9.7 | 0.00 | 0.00 | 0.00 | 62 | 1007.6 |
| 20260506083203 | 16 | 191 | 3.2 | 9.7 | 0.00 | 0.00 | 0.00 | 63 | 1007.6 |
| 20260506083103 | 15 | 187 | 3.2 | 8.0 | 0.00 | 0.00 | 0.00 | 62 | 1007.6 |
| 20260506083004 | 16 | 184 | 3.2 | 11.3 | 0.00 | 0.00 | 0.00 | 63 | 1007.6 |
| 20260506082904 | 16 | 185 | 3.2 | 11.3 | 0.00 | 0.00 | 0.00 | 63 | 1007.8 |
| 20260506082803 | 16 | 188 | 3.2 | 11.3 | 0.00 | 0.00 | 0.00 | 63 | 1007.8 |
| 20260506082703 | 16 | 188 | 4.8 | 12.9 | 0.00 | 0.00 | 0.00 | 62 | 1007.8 |
| 20260506082603 | 16 | 187 | 4.8 | 12.9 | 0.00 | 0.00 | 0.00 | 62 | 1007.8 |
| 20260506082503 | 16 | 184 | 4.8 | 12.9 | 0.00 | 0.00 | 0.00 | 63 | 1007.6 |
| 20260506082404 | 15 | 178 | 6.4 | 12.9 | 0.00 | 0.00 | 0.00 | 63 | 1007.6 |
| 20260506082305 | 15 | 168 | 6.4 | 14.5 | 0.00 | 0.00 | 0.00 | 63 | 1007.6 |
| 20260506082204 | 15 | 160 | 8.0 | 16.1 | 0.00 | 0.00 | 0.00 | 62 | 1007.6 |
| 20260506082104 | 15 | 157 | 8.0 | 16.1 | 0.00 | 0.00 | 0.00 | 63 | 1007.6 |
| 20260506082004 | 15 | 153 | 6.4 | 16.1 | 0.00 | 0.00 | 0.00 | 61 | 1007.6 |
| 20260506081903 | 15 | 147 | 4.8 | 16.1 | 0.00 | 0.00 | 0.00 | 62 | 1007.6 |
| 20260506081803 | 15 | 143 | 4.8 | 11.3 | 0.00 | 0.00 | 0.00 | 64 | 1007.6 |
| 20260506081703 | 15 | 146 | 6.4 | 12.9 | 0.00 | 0.00 | 0.00 | 64 | 1007.6 |
| 20260506081603 | 15 | 150 | 6.4 | 12.9 | 0.00 | 0.00 | 0.00 | 62 | 1007.6 |
| 20260506081503 | 15 | 154 | 6.4 | 12.9 | 0.00 | 0.00 | 0.00 | 63 | 1007.6 |
| 20260506081404 | 15 | 158 | 6.4 | 12.9 | 0.00 | 0.00 | 0.00 | 63 | 1007.6 |
| 20260506081303 | 15 | 163 | 6.4 | 14.5 | 0.00 | 0.00 | 0.00 | 63 | 1007.6 |
| 20260506081203 | 15 | 164 | 4.8 | 14.5 | 0.00 | 0.00 | 0.00 | 63 | 1007.6 |
| 20260506081103 | 15 | 167 | 4.8 | 14.5 | 0.00 | 0.00 | 0.00 | 63 | 1007.6 |
| 20260506081004 | 15 | 172 | 6.4 | 14.5 | 0.00 | 0.00 | 0.00 | 63 | 1007.6 |
| 20260506080904 | 15 | 179 | 6.4 | 14.5 | 0.00 | 0.00 | 0.00 | 63 | 1007.8 |
| 20260506080803 | 15 | 181 | 6.4 | 14.5 | 0.00 | 0.00 | 0.00 | 63 | 1007.8 |
| 20260506080703 | 15 | 183 | 6.4 | 14.5 | 0.00 | 0.00 | 0.00 | 62 | 1007.8 |
| 20260506080603 | 15 | 185 | 4.8 | 14.5 | 0.00 | 0.00 | 0.00 | 65 | 1007.8 |
| 20260506080503 | 15 | 185 | 3.2 | 12.9 | 0.00 | 0.00 | 0.00 | 65 | 1007.8 |
| 20260506080404 | 15 | 182 | 3.2 | 12.9 | 0.00 | 0.00 | 0.00 | 66 | 1007.8 |
| 20260506080304 | 15 | 178 | 1.6 | 12.9 | 0.00 | 0.00 | 0.00 | 66 | 1007.6 |
| 20260506080203 | 15 | 175 | 0.0 | 3.2 | 0.00 | 0.00 | 0.00 | 70 | 1007.6 |
| 20260506073504 | 13 | 189 | 3.2 | 8.0 | 0.00 | 0.00 | 0.00 | 72 | 1007.8 |
| 20260506073404 | 13 | 190 | 3.2 | 8.0 | 0.00 | 0.00 | 0.00 | 73 | 1007.8 |
| 20260506073304 | 13 | 191 | 3.2 | 8.0 | 0.00 | 0.00 | 0.00 | 72 | 1007.8 |
| 20260506073203 | 13 | 192 | 1.6 | 8.0 | 0.00 | 0.00 | 0.00 | 72 | 1007.8 |
| 20260506073103 | 13 | 195 | 1.6 | 8.0 | 0.00 | 0.00 | 0.00 | 73 | 1007.8 |
| 20260506073003 | 13 | 202 | 0.0 | 3.2 | 0.00 | 0.00 | 0.00 | 74 | 1007.8 |
| 20260506072903 | 13 | 206 | 1.6 | 3.2 | 0.00 | 0.00 | 0.00 | 73 | 1007.8 |
| 20260506072804 | 13 | 208 | 1.6 | 3.2 | 0.00 | 0.00 | 0.00 | 74 | 1007.8 |
| 20260506072704 | 13 | 210 | 1.6 | 3.2 | 0.00 | 0.00 | 0.00 | 74 | 1007.8 |
| 20260506072603 | 13 | 209 | 1.6 | 3.2 | 0.00 | 0.00 | 0.00 | 74 | 1007.8 |
| 20260506072503 | 13 | 208 | 1.6 | 3.2 | 0.00 | 0.00 | 0.00 | 74 | 1007.8 |
| 20260506072403 | 13 | 205 | 0.0 | 3.2 | 0.00 | 0.00 | 0.00 | 73 | 1007.8 |
| 20260506072305 | 13 | 200 | 1.6 | 4.8 | 0.00 | 0.00 | 0.00 | 73 | 1007.9 |
| 20260506072203 | 13 | 198 | 1.6 | 4.8 | 0.00 | 0.00 | 0.00 | 73 | 1007.9 |
| 20260506072103 | 13 | 201 | 3.2 | 6.4 | 0.00 | 0.00 | 0.00 | 73 | 1007.9 |
| 20260506072003 | 13 | 203 | 3.2 | 6.4 | 0.00 | 0.00 | 0.00 | 72 | 1008.0 |
| 20260506071903 | 13 | 205 | 3.2 | 6.4 | 0.00 | 0.00 | 0.00 | 72 | 1008.0 |
| 20260506071804 | 13 | 208 | 3.2 | 6.4 | 0.00 | 0.00 | 0.00 | 74 | 1008.0 |
| 20260506071704 | 13 | 214 | 1.6 | 8.0 | 0.00 | 0.00 | 0.00 | 74 | 1008.0 |
| 20260506071604 | 13 | 216 | 3.2 | 8.0 | 0.00 | 0.00 | 0.00 | 75 | 1008.0 |
| 20260506071503 | 13 | 214 | 3.2 | 8.0 | 0.00 | 0.00 | 0.00 | 76 | 1008.0 |
| 20260506071403 | 13 | 212 | 6.4 | 9.7 | 0.00 | 0.00 | 0.00 | 76 | 1008.0 |
| 20260506071303 | 13 | 211 | 6.4 | 9.7 | 0.00 | 0.00 | 0.00 | 77 | 1008.0 |
| 20260506071203 | 13 | 210 | 6.4 | 9.7 | 0.00 | 0.00 | 0.00 | 75 | 1008.0 |
| 20260506071104 | 13 | 209 | 6.4 | 9.7 | 0.00 | 0.00 | 0.00 | 75 | 1007.9 |
| 20260506071004 | 13 | 209 | 4.8 | 9.7 | 0.00 | 0.00 | 0.00 | 74 | 1008.0 |
| 20260506070904 | 13 | 208 | 4.8 | 9.7 | 0.00 | 0.00 | 0.00 | 74 | 1008.0 |
| 20260506070804 | 13 | 209 | 4.8 | 9.7 | 0.00 | 0.00 | 0.00 | 74 | 1008.0 |
| 20260506070704 | 13 | 213 | 3.2 | 8.0 | 0.00 | 0.00 | 0.00 | 75 | 1007.9 |
| 20260506070603 | 13 | 218 | 3.2 | 8.0 | 0.00 | 0.00 | 0.00 | 75 | 1007.9 |
| 20260506070504 | 13 | 224 | 3.2 | 6.4 | 0.00 | 0.00 | 0.00 | 73 | 1007.9 |
| 20260506070403 | 13 | 228 | 1.6 | 4.8 | 0.00 | 0.00 | 0.00 | 73 | 1007.9 |
| 20260506070303 | 13 | 227 | 1.6 | 4.8 | 0.00 | 0.00 | 0.00 | 73 | 1007.9 |
| 20260506070203 | 13 | 222 | 1.6 | 4.8 | 0.00 | 0.00 | 0.00 | 74 | 1007.9 |
| 20260506070103 | 13 | 222 | 1.6 | 4.8 | 0.00 | 0.00 | 0.00 | 73 | 1007.9 |
| 20260506062503 | 13 | 197 | 3.2 | 8.0 | 0.00 | 0.00 | 0.00 | 76 | 1008.0 |
| 20260506062403 | 13 | 198 | 3.2 | 8.0 | 0.00 | 0.00 | 0.00 | 75 | 1008.0 |
| 20260506062305 | 12 | 194 | 3.2 | 8.0 | 0.00 | 0.00 | 0.00 | 77 | 1008.0 |
| 20260506062203 | 12 | 188 | 3.2 | 9.7 | 0.00 | 0.00 | 0.00 | 78 | 1008.0 |
| 20260506062104 | 12 | 184 | 4.8 | 9.7 | 0.00 | 0.00 | 0.00 | 78 | 1008.0 |
| 20260506062004 | 12 | 181 | 4.8 | 9.7 | 0.00 | 0.00 | 0.00 | 77 | 1008.0 |
| 20260506061903 | 12 | 177 | 6.4 | 9.7 | 0.00 | 0.00 | 0.00 | 78 | 1008.0 |
| 20260506061804 | 12 | 174 | 4.8 | 9.7 | 0.00 | 0.00 | 0.00 | 78 | 1008.0 |
| 20260506061704 | 13 | 174 | 3.2 | 9.7 | 0.00 | 0.00 | 0.00 | 78 | 1008.0 |
| 20260506061603 | 13 | 175 | 3.2 | 9.7 | 0.00 | 0.00 | 0.00 | 79 | 1008.0 |
| 20260506061503 | 13 | 177 | 3.2 | 8.0 | 0.00 | 0.00 | 0.00 | 77 | 1008.1 |
| 20260506061403 | 13 | 178 | 3.2 | 8.0 | 0.00 | 0.00 | 0.00 | 76 | 1008.1 |
| 20260506061304 | 13 | 179 | 3.2 | 8.0 | 0.00 | 0.00 | 0.00 | 77 | 1008.1 |
| 20260506061203 | 12 | 177 | 3.2 | 6.4 | 0.00 | 0.00 | 0.00 | 78 | 1008.1 |
| 20260506061103 | 12 | 174 | 3.2 | 8.0 | 0.00 | 0.00 | 0.00 | 79 | 1008.1 |
| 20260506061003 | 12 | 171 | 4.8 | 8.0 | 0.00 | 0.00 | 0.00 | 79 | 1008.1 |
| 20260506060903 | 12 | 168 | 6.4 | 8.0 | 0.00 | 0.00 | 0.00 | 80 | 1008.1 |
| 20260506060803 | 12 | 168 | 6.4 | 9.7 | 0.00 | 0.00 | 0.00 | 80 | 1008.1 |
| 20260506060704 | 12 | 167 | 4.8 | 9.7 | 0.00 | 0.00 | 0.00 | 80 | 1008.1 |
| 20260506060603 | 12 | 168 | 4.8 | 9.7 | 0.00 | 0.00 | 0.00 | 79 | 1008.1 |
| 20260506060504 | 12 | 168 | 4.8 | 11.3 | 0.00 | 0.00 | 0.00 | 79 | 1008.0 |
| 20260506060404 | 12 | 164 | 6.4 | 12.9 | 0.00 | 0.00 | 0.00 | 78 | 1008.0 |
| 20260506060304 | 12 | 162 | 6.4 | 12.9 | 0.00 | 0.00 | 0.00 | 78 | 1008.0 |
| 20260506060204 | 12 | 161 | 6.4 | 12.9 | 0.00 | 0.00 | 0.00 | 78 | 1008.0 |
| 20260506060104 | 12 | 160 | 4.8 | 12.9 | 0.00 | 0.00 | 0.00 | 77 | 1008.0 |
| 20260506051404 | 11 | 198 | 1.6 | 3.2 | 0.00 | 0.00 | 0.00 | 85 | 1008.2 |
| 20260506051303 | 11 | 196 | 1.6 | 4.8 | 0.00 | 0.00 | 0.00 | 85 | 1008.2 |
| 20260506051203 | 11 | 196 | 1.6 | 6.4 | 0.00 | 0.00 | 0.00 | 86 | 1008.2 |
| 20260506051103 | 11 | 198 | 3.2 | 6.4 | 0.00 | 0.00 | 0.00 | 85 | 1008.2 |
| 20260506051003 | 11 | 201 | 3.2 | 6.4 | 0.00 | 0.00 | 0.00 | 85 | 1008.2 |
| 20260506050904 | 11 | 205 | 3.2 | 6.4 | 0.00 | 0.00 | 0.00 | 85 | 1008.2 |
| 20260506050804 | 11 | 208 | 3.2 | 6.4 | 0.00 | 0.00 | 0.00 | 86 | 1008.2 |
| 20260506050703 | 11 | 209 | 3.2 | 6.4 | 0.00 | 0.00 | 0.00 | 86 | 1008.2 |
| 20260506050603 | 11 | 209 | 3.2 | 6.4 | 0.00 | 0.00 | 0.00 | 86 | 1008.2 |
| 20260506050503 | 11 | 211 | 3.2 | 6.4 | 0.00 | 0.00 | 0.00 | 86 | 1008.2 |
| 20260506050403 | 11 | 214 | 3.2 | 6.4 | 0.00 | 0.00 | 0.00 | 86 | 1008.2 |
| 20260506050303 | 11 | 219 | 3.2 | 6.4 | 0.00 | 0.00 | 0.00 | 86 | 1008.2 |
| 20260506050203 | 11 | 223 | 3.2 | 6.4 | 0.00 | 0.00 | 0.00 | 86 | 1008.2 |
| 20260506050103 | 11 | 228 | 3.2 | 6.4 | 0.00 | 0.00 | 0.00 | 86 | 1008.2 |
| 20260506045103 | 11 | 212 | 3.2 | 9.7 | 0.00 | 0.00 | 0.00 | 86 | 1008.3 |
| 20260506045003 | 11 | 212 | 4.8 | 9.7 | 0.00 | 0.00 | 0.00 | 86 | 1008.3 |
| 20260506044903 | 11 | 213 | 6.4 | 11.3 | 0.00 | 0.00 | 0.00 | 86 | 1008.3 |
| 20260506044803 | 11 | 213 | 6.4 | 11.3 | 0.00 | 0.00 | 0.00 | 85 | 1008.3 |
| 20260506044703 | 11 | 213 | 4.8 | 11.3 | 0.00 | 0.00 | 0.00 | 86 | 1008.3 |
| 20260506044604 | 11 | 213 | 4.8 | 11.3 | 0.00 | 0.00 | 0.00 | 86 | 1008.2 |
| 20260506044503 | 11 | 212 | 4.8 | 11.3 | 0.00 | 0.00 | 0.00 | 86 | 1008.2 |
| 20260506044403 | 11 | 211 | 4.8 | 9.7 | 0.00 | 0.00 | 0.00 | 86 | 1008.2 |
| 20260506044303 | 11 | 210 | 6.4 | 9.7 | 0.00 | 0.00 | 0.00 | 85 | 1008.2 |
| 20260506044203 | 11 | 208 | 4.8 | 9.7 | 0.00 | 0.00 | 0.00 | 85 | 1008.2 |
| 20260506044104 | 11 | 206 | 3.2 | 9.7 | 0.00 | 0.00 | 0.00 | 85 | 1008.2 |
| 20260506044004 | 11 | 203 | 3.2 | 9.7 | 0.00 | 0.00 | 0.00 | 85 | 1008.1 |
| 20260506043903 | 11 | 200 | 3.2 | 6.4 | 0.00 | 0.00 | 0.00 | 86 | 1008.1 |
| 20260506043803 | 11 | 200 | 3.2 | 6.4 | 0.00 | 0.00 | 0.00 | 86 | 1008.1 |
| 20260506043703 | 11 | 200 | 3.2 | 6.4 | 0.00 | 0.00 | 0.00 | 86 | 1008.1 |
| 20260506043603 | 11 | 200 | 3.2 | 6.4 | 0.00 | 0.00 | 0.00 | 86 | 1008.1 |
| 20260506043504 | 11 | 199 | 3.2 | 6.4 | 0.00 | 0.00 | 0.00 | 85 | 1008.1 |
| 20260506043404 | 11 | 199 | 1.6 | 4.8 | 0.00 | 0.00 | 0.00 | 86 | 1008.1 |
| 20260506043304 | 11 | 197 | 1.6 | 4.8 | 0.00 | 0.00 | 0.00 | 86 | 1008.1 |
| 20260506043204 | 11 | 196 | 1.6 | 4.8 | 0.00 | 0.00 | 0.00 | 86 | 1008.1 |
| 20260506043104 | 11 | 194 | 3.2 | 8.0 | 0.00 | 0.00 | 0.00 | 86 | 1008.1 |
| 20260506043004 | 11 | 194 | 3.2 | 8.0 | 0.00 | 0.00 | 0.00 | 86 | 1008.1 |
| 20260506042903 | 11 | 194 | 3.2 | 8.0 | 0.00 | 0.00 | 0.00 | 86 | 1008.1 |
| 20260506042803 | 11 | 192 | 3.2 | 8.0 | 0.00 | 0.00 | 0.00 | 85 | 1008.1 |
| 20260506042703 | 11 | 190 | 3.2 | 6.4 | 0.00 | 0.00 | 0.00 | 85 | 1008.1 |
| 20260506042604 | 11 | 188 | 3.2 | 6.4 | 0.00 | 0.00 | 0.00 | 85 | 1008.1 |
| 20260506042503 | 11 | 189 | 3.2 | 8.0 | 0.00 | 0.00 | 0.00 | 85 | 1008.1 |
| 20260506042403 | 11 | 190 | 4.8 | 11.3 | 0.00 | 0.00 | 0.00 | 86 | 1008.2 |
| 20260506042305 | 11 | 190 | 4.8 | 11.3 | 0.00 | 0.00 | 0.00 | 86 | 1008.2 |
| 20260506042204 | 11 | 192 | 4.8 | 11.3 | 0.00 | 0.00 | 0.00 | 86 | 1008.2 |
| 20260506042104 | 11 | 193 | 4.8 | 11.3 | 0.00 | 0.00 | 0.00 | 86 | 1008.2 |
| 20260506042004 | 11 | 195 | 4.8 | 8.0 | 0.00 | 0.00 | 0.00 | 86 | 1008.3 |
| 20260506041903 | 11 | 197 | 4.8 | 8.0 | 0.00 | 0.00 | 0.00 | 86 | 1008.3 |
| 20260506041803 | 11 | 199 | 4.8 | 11.3 | 0.00 | 0.00 | 0.00 | 85 | 1008.3 |
| 20260506041704 | 11 | 200 | 3.2 | 11.3 | 0.00 | 0.00 | 0.00 | 85 | 1008.3 |
| 20260506041604 | 11 | 200 | 3.2 | 11.3 | 0.00 | 0.00 | 0.00 | 85 | 1008.3 |
| 20260506041503 | 11 | 200 | 3.2 | 11.3 | 0.00 | 0.00 | 0.00 | 85 | 1008.3 |
| 20260506041403 | 11 | 197 | 3.2 | 9.7 | 0.00 | 0.00 | 0.00 | 85 | 1008.3 |
| 20260506041303 | 11 | 195 | 4.8 | 9.7 | 0.00 | 0.00 | 0.00 | 86 | 1008.3 |
| 20260506041204 | 11 | 192 | 4.8 | 9.7 | 0.00 | 0.00 | 0.00 | 85 | 1008.3 |
| 20260506041103 | 11 | 190 | 6.4 | 11.3 | 0.00 | 0.00 | 0.00 | 85 | 1008.3 |
| 20260506041003 | 11 | 190 | 6.4 | 11.3 | 0.00 | 0.00 | 0.00 | 86 | 1008.3 |
| 20260506040903 | 11 | 190 | 6.4 | 11.3 | 0.00 | 0.00 | 0.00 | 86 | 1008.3 |
| 20260506040804 | 11 | 191 | 6.4 | 11.3 | 0.00 | 0.00 | 0.00 | 86 | 1008.3 |
| 20260506040704 | 11 | 193 | 6.4 | 11.3 | 0.00 | 0.00 | 0.00 | 86 | 1008.2 |
| 20260506040604 | 11 | 193 | 6.4 | 11.3 | 0.00 | 0.00 | 0.00 | 86 | 1008.2 |
| 20260506040503 | 11 | 194 | 6.4 | 11.3 | 0.00 | 0.00 | 0.00 | 86 | 1008.2 |
| 20260506040403 | 11 | 195 | 6.4 | 11.3 | 0.00 | 0.00 | 0.00 | 86 | 1008.2 |
| 20260506040303 | 11 | 196 | 6.4 | 11.3 | 0.00 | 0.00 | 0.00 | 86 | 1008.2 |
| 20260506040203 | 11 | 198 | 4.8 | 11.3 | 0.00 | 0.00 | 0.00 | 86 | 1008.2 |
| 20260506040003 | 11 | 197 | 6.4 | 14.5 | 0.00 | 0.00 | 0.00 | 87 | 1008.2 |
| 20260506035903 | 11 | 197 | 6.4 | 14.5 | 0.00 | 0.00 | 0.00 | 87 | 1008.2 |
| 20260506035804 | 11 | 195 | 6.4 | 14.5 | 0.00 | 0.00 | 0.00 | 87 | 1008.2 |
| 20260506035704 | 11 | 195 | 6.4 | 14.5 | 0.00 | 0.00 | 0.00 | 87 | 1008.1 |